Time,TemperatureF,DewpointF,PressureIn,WindDirection,WindDirectionDegrees,WindSpeedMPH,WindSpeedGustMPH,Humidity,HourlyPrecipIn,Conditions,Clouds,dailyrainin,SoftwareType,DateUTC
2013-03-15 00:00:00,35.1,16.4,30.27,NW,319,0.0,0.0,46,0.00,,---,0.00,VWS V14.01,2013-03-15 04:00:00,
2013-03-15 00:05:00,35.1,16.9,30.27,NW,319,0.0,0.0,47,0.00,,---,0.00,VWS V14.01,2013-03-15 04:05:00,
2013-03-15 00:10:00,34.9,16.7,30.27,NW,319,0.0,0.0,47,0.00,,---,0.00,VWS V14.01,2013-03-15 04:10:00,
2013-03-15 00:15:00,34.9,16.7,30.27,NW,319,0.0,0.0,47,0.00,,---,0.00,VWS V14.01,2013-03-15 04:15:00,
2013-03-15 00:20:00,34.9,16.7,30.27,NW,315,0.0,0.0,47,0.00,,---,0.00,VWS V14.01,2013-03-15 04:20:00,
2013-03-15 00:25:00,34.9,16.7,30.27,NW,315,0.0,0.0,47,0.00,,---,0.00,VWS V14.01,2013-03-15 04:25:00,
2013-03-15 00:30:00,35.1,17.4,30.27,NW,315,0.0,0.0,48,0.00,,---,0.00,VWS V14.01,2013-03-15 04:30:00,
2013-03-15 00:35:00,35.1,17.4,30.27,NW,315,0.0,0.0,48,0.00,,---,0.00,VWS V14.01,2013-03-15 04:35:00,
2013-03-15 00:40:00,35.2,17.0,30.27,NW,315,0.0,0.0,47,0.00,,---,0.00,VWS V14.01,2013-03-15 04:40:00,
2013-03-15 00:45:00,35.2,17.0,30.27,NW,315,0.0,0.0,47,0.00,,---,0.00,VWS V14.01,2013-03-15 04:45:00,
2013-03-15 00:50:00,35.2,17.0,30.27,NW,305,0.0,0.0,47,0.00,,---,0.00,VWS V14.01,2013-03-15 04:50:00,
2013-03-15 00:55:00,34.9,16.2,30.27,WNW,299,0.0,0.0,46,0.00,,---,0.00,VWS V14.01,2013-03-15 04:55:00,
2013-03-15 01:00:00,34.7,16.0,30.27,WNW,298,0.0,0.0,46,0.00,,---,0.00,VWS V14.01,2013-03-15 05:00:00,
2013-03-15 01:05:00,34.9,16.2,30.27,WNW,298,0.0,0.0,46,0.00,,---,0.00,VWS V14.01,2013-03-15 05:05:00,
2013-03-15 01:10:00,35.1,16.9,30.27,WNW,298,0.0,0.0,47,0.00,,---,0.00,VWS V14.01,2013-03-15 05:10:00,
2013-03-15 01:15:00,35.1,16.9,30.27,WNW,286,0.0,0.0,47,0.00,,---,0.00,VWS V14.01,2013-03-15 05:15:00,
2013-03-15 01:20:00,34.5,15.9,30.27,WNW,286,0.0,0.0,46,0.00,,---,0.00,VWS V14.01,2013-03-15 05:20:00,
2013-03-15 01:25:00,34.3,16.2,30.24,West,273,2.7,2.7,47,0.00,,---,0.00,VWS V14.01,2013-03-15 05:25:00,
2013-03-15 01:30:00,34.5,16.4,30.24,West,277,0.0,0.0,47,0.00,,---,0.00,VWS V14.01,2013-03-15 05:30:00,
2013-03-15 01:35:00,34.9,16.7,30.24,West,278,0.0,0.0,47,0.00,,---,0.00,VWS V14.01,2013-03-15 05:35:00,
2013-03-15 01:40:00,35.1,16.9,30.27,WNW,289,0.0,0.0,47,0.00,,---,0.00,VWS V14.01,2013-03-15 05:40:00,
2013-03-15 01:41:00,35.1,16.9,30.27,WNW,289,0.0,0.0,47,0.00,,---,0.00,VWS V14.01,2013-03-15 05:41:00,
2013-03-15 01:45:00,35.1,16.9,30.27,West,268,0.0,0.0,47,0.00,,---,0.00,VWS V14.01,2013-03-15 05:45:00,
2013-03-15 01:46:00,35.1,16.9,30.27,West,268,0.0,0.0,47,0.00,,---,0.00,VWS V14.01,2013-03-15 05:46:00,
2013-03-15 01:50:00,35.1,16.9,30.27,West,271,2.2,2.2,47,0.00,,---,0.00,VWS V14.01,2013-03-15 05:50:00,
2013-03-15 01:51:00,34.9,16.7,30.27,West,271,2.2,2.2,47,0.00,,---,0.00,VWS V14.01,2013-03-15 05:51:00,
2013-03-15 01:55:00,34.9,16.7,30.27,NW,307,0.0,0.0,47,0.00,,---,0.00,VWS V14.01,2013-03-15 05:55:00,
2013-03-15 01:56:00,34.9,16.7,30.27,WNW,294,0.0,0.0,47,0.00,,---,0.00,VWS V14.01,2013-03-15 05:56:00,
2013-03-15 02:00:00,34.7,16.5,30.27,WNW,299,0.0,0.0,47,0.00,,---,0.00,VWS V14.01,2013-03-15 06:00:00,
2013-03-15 02:01:00,34.7,16.5,30.27,WNW,299,0.0,0.0,47,0.00,,---,0.00,VWS V14.01,2013-03-15 06:01:00,
2013-03-15 02:05:00,34.5,16.9,30.27,WNW,290,0.0,0.0,48,0.00,,---,0.00,VWS V14.01,2013-03-15 06:05:00,
2013-03-15 02:06:00,34.5,16.9,30.27,WNW,290,0.0,0.0,48,0.00,,---,0.00,VWS V14.01,2013-03-15 06:06:00,
2013-03-15 02:10:00,34.5,16.9,30.27,West,277,0.0,0.0,48,0.00,,---,0.00,VWS V14.01,2013-03-15 06:10:00,
2013-03-15 02:11:00,34.5,16.9,30.27,West,277,0.0,0.0,48,0.00,,---,0.00,VWS V14.01,2013-03-15 06:11:00,
2013-03-15 02:15:00,34.5,17.3,30.27,West,277,0.0,0.0,49,0.00,,---,0.00,VWS V14.01,2013-03-15 06:15:00,
2013-03-15 02:16:00,34.5,17.3,30.27,West,277,0.0,0.0,49,0.00,,---,0.00,VWS V14.01,2013-03-15 06:16:00,
2013-03-15 02:17:00,34.5,17.3,30.27,West,277,0.0,0.0,49,0.00,,---,0.00,VWS V14.01,2013-03-15 06:17:00,
2013-03-15 02:20:00,34.7,17.5,30.27,WNW,285,0.0,0.0,49,0.00,,---,0.00,VWS V14.01,2013-03-15 06:20:00,
2013-03-15 02:21:00,34.7,17.5,30.27,WNW,285,0.0,0.0,49,0.00,,---,0.00,VWS V14.01,2013-03-15 06:21:00,
2013-03-15 02:22:00,34.7,17.5,30.27,WNW,300,0.0,0.0,49,0.00,,---,0.00,VWS V14.01,2013-03-15 06:22:00,
2013-03-15 02:25:00,34.7,17.5,30.27,WNW,294,0.0,0.0,49,0.00,,---,0.00,VWS V14.01,2013-03-15 06:25:00,
2013-03-15 02:26:00,34.7,17.5,30.27,WNW,294,0.0,0.0,49,0.00,,---,0.00,VWS V14.01,2013-03-15 06:26:00,
2013-03-15 02:27:00,34.5,17.3,30.27,WNW,294,0.0,0.0,49,0.00,,---,0.00,VWS V14.01,2013-03-15 06:27:00,
2013-03-15 02:31:00,34.5,17.3,30.27,WNW,292,0.0,0.0,49,0.00,,---,0.00,VWS V14.01,2013-03-15 06:31:00,
2013-03-15 02:32:00,34.5,17.3,30.27,WNW,300,2.2,2.7,49,0.00,,---,0.00,VWS V14.01,2013-03-15 06:32:00,
2013-03-15 02:36:00,34.5,17.3,30.27,West,278,2.7,2.7,49,0.00,,---,0.00,VWS V14.01,2013-03-15 06:36:00,
2013-03-15 02:38:00,34.5,17.3,30.27,West,278,2.7,2.7,49,0.00,,---,0.00,VWS V14.01,2013-03-15 06:38:00,
2013-03-15 02:41:00,34.5,17.3,30.27,West,278,2.7,2.7,49,0.00,,---,0.00,VWS V14.01,2013-03-15 06:41:00,
2013-03-15 02:42:00,34.7,17.5,30.27,West,278,2.7,2.7,49,0.00,,---,0.00,VWS V14.01,2013-03-15 06:42:00,
2013-03-15 02:43:00,34.7,17.5,30.27,West,278,2.7,2.7,49,0.00,,---,0.00,VWS V14.01,2013-03-15 06:43:00,
2013-03-15 02:46:00,34.7,17.5,30.27,WNW,287,0.0,0.0,49,0.00,,---,0.00,VWS V14.01,2013-03-15 06:46:00,
2013-03-15 02:47:00,34.7,17.5,30.27,WNW,287,0.0,0.0,49,0.00,,---,0.00,VWS V14.01,2013-03-15 06:47:00,
2013-03-15 02:48:00,34.7,17.5,30.27,West,276,0.0,0.0,49,0.00,,---,0.00,VWS V14.01,2013-03-15 06:48:00,
2013-03-15 02:51:00,34.9,17.7,30.27,West,273,0.0,0.0,49,0.00,,---,0.00,VWS V14.01,2013-03-15 06:51:00,
2013-03-15 02:52:00,34.9,17.2,30.27,WNW,301,0.0,0.0,48,0.00,,---,0.00,VWS V14.01,2013-03-15 06:52:00,
2013-03-15 02:53:00,34.9,17.2,30.27,WNW,301,0.0,0.0,48,0.00,,---,0.00,VWS V14.01,2013-03-15 06:53:00,
2013-03-15 02:56:00,34.9,17.2,30.27,WNW,301,0.0,0.0,48,0.00,,---,0.00,VWS V14.01,2013-03-15 06:56:00,
2013-03-15 02:57:00,34.9,17.2,30.27,West,259,2.2,2.2,48,0.00,,---,0.00,VWS V14.01,2013-03-15 06:57:00,
2013-03-15 02:58:00,34.9,17.2,30.27,West,259,2.2,2.2,48,0.00,,---,0.00,VWS V14.01,2013-03-15 06:58:00,
2013-03-15 03:01:00,34.9,17.2,30.27,WNW,290,2.7,2.7,48,0.00,,---,0.00,VWS V14.01,2013-03-15 07:01:00,
2013-03-15 03:02:00,34.9,16.7,30.27,WNW,286,3.6,3.6,47,0.00,,---,0.00,VWS V14.01,2013-03-15 07:02:00,
2013-03-15 03:03:00,34.7,16.5,30.27,WNW,286,3.6,3.6,47,0.00,,---,0.00,VWS V14.01,2013-03-15 07:03:00,
2013-03-15 03:06:00,34.7,16.5,30.27,WNW,298,0.0,0.0,47,0.00,,---,0.00,VWS V14.01,2013-03-15 07:06:00,
2013-03-15 03:07:00,34.7,16.5,30.27,WNW,298,0.0,0.0,47,0.00,,---,0.00,VWS V14.01,2013-03-15 07:07:00,
2013-03-15 03:08:00,34.7,16.5,30.27,WNW,298,0.0,0.0,47,0.00,,---,0.00,VWS V14.01,2013-03-15 07:08:00,
2013-03-15 03:11:00,34.9,16.7,30.27,West,267,0.0,0.0,47,0.00,,---,0.00,VWS V14.01,2013-03-15 07:11:00,
2013-03-15 03:12:00,34.7,16.5,30.27,West,267,0.0,0.0,47,0.00,,---,0.00,VWS V14.01,2013-03-15 07:12:00,
2013-03-15 03:13:00,34.7,16.5,30.27,West,267,0.0,0.0,47,0.00,,---,0.00,VWS V14.01,2013-03-15 07:13:00,
2013-03-15 03:16:00,34.7,16.0,30.27,WNW,284,0.0,0.0,46,0.00,,---,0.00,VWS V14.01,2013-03-15 07:16:00,
2013-03-15 03:17:00,34.5,15.9,30.27,WNW,284,0.0,0.0,46,0.00,,---,0.00,VWS V14.01,2013-03-15 07:17:00,
2013-03-15 03:18:00,34.5,15.9,30.27,WNW,284,0.0,0.0,46,0.00,,---,0.00,VWS V14.01,2013-03-15 07:18:00,
2013-03-15 03:21:00,34.7,16.0,30.27,WNW,284,0.0,0.0,46,0.00,,---,0.00,VWS V14.01,2013-03-15 07:21:00,
2013-03-15 03:22:00,34.7,16.0,30.27,WNW,284,0.0,0.0,46,0.00,,---,0.00,VWS V14.01,2013-03-15 07:22:00,
2013-03-15 03:23:00,34.7,16.0,30.27,West,267,0.0,0.0,46,0.00,,---,0.00,VWS V14.01,2013-03-15 07:23:00,
2013-03-15 03:24:00,34.7,16.0,30.27,West,267,0.0,0.0,46,0.00,,---,0.00,VWS V14.01,2013-03-15 07:24:00,
2013-03-15 03:27:00,34.5,15.9,30.27,West,267,0.0,0.0,46,0.00,,---,0.00,VWS V14.01,2013-03-15 07:27:00,
2013-03-15 03:28:00,34.5,15.9,30.27,WNW,290,3.6,3.6,46,0.00,,---,0.00,VWS V14.01,2013-03-15 07:28:00,
2013-03-15 03:29:00,34.5,15.9,30.27,WNW,290,3.6,3.6,46,0.00,,---,0.00,VWS V14.01,2013-03-15 07:29:00,
2013-03-15 03:32:00,34.5,15.9,30.27,WNW,290,3.6,3.6,46,0.00,,---,0.00,VWS V14.01,2013-03-15 07:32:00,
2013-03-15 03:33:00,34.5,15.9,30.27,WNW,290,3.6,3.6,46,0.00,,---,0.00,VWS V14.01,2013-03-15 07:33:00,
2013-03-15 03:34:00,34.5,15.9,30.27,WNW,290,3.6,3.6,46,0.00,,---,0.00,VWS V14.01,2013-03-15 07:34:00,
2013-03-15 03:37:00,34.5,15.9,30.27,NW,314,2.7,2.7,46,0.00,,---,0.00,VWS V14.01,2013-03-15 07:37:00,
2013-03-15 03:38:00,34.5,15.9,30.27,NW,314,0.0,0.0,46,0.00,,---,0.00,VWS V14.01,2013-03-15 07:38:00,
2013-03-15 03:39:00,34.5,15.9,30.27,NW,314,0.0,0.0,46,0.00,,---,0.00,VWS V14.01,2013-03-15 07:39:00,
2013-03-15 03:42:00,34.5,15.4,30.27,NW,311,0.0,0.0,45,0.00,,---,0.00,VWS V14.01,2013-03-15 07:42:00,
2013-03-15 03:43:00,34.5,15.4,30.27,NW,311,0.0,0.0,45,0.00,,---,0.00,VWS V14.01,2013-03-15 07:43:00,
2013-03-15 03:44:00,34.5,15.4,30.27,NW,311,0.0,0.0,45,0.00,,---,0.00,VWS V14.01,2013-03-15 07:44:00,
2013-03-15 03:47:00,34.3,15.2,30.27,NW,311,0.0,0.0,45,0.00,,---,0.00,VWS V14.01,2013-03-15 07:47:00,
2013-03-15 03:48:00,34.3,15.2,30.27,NW,311,0.0,0.0,45,0.00,,---,0.00,VWS V14.01,2013-03-15 07:48:00,
2013-03-15 03:49:00,34.3,15.2,30.27,NW,311,0.0,0.0,45,0.00,,---,0.00,VWS V14.01,2013-03-15 07:49:00,
2013-03-15 03:52:00,34.3,15.2,30.27,NNW,334,0.0,0.0,45,0.00,,---,0.00,VWS V14.01,2013-03-15 07:52:00,
2013-03-15 03:53:00,34.3,15.2,30.27,NNW,334,0.0,0.0,45,0.00,,---,0.00,VWS V14.01,2013-03-15 07:53:00,
2013-03-15 03:54:00,34.3,15.2,30.27,NW,310,0.0,0.0,45,0.00,,---,0.00,VWS V14.01,2013-03-15 07:54:00,
2013-03-15 03:57:00,34.3,15.2,30.27,WNW,297,0.0,0.0,45,0.00,,---,0.00,VWS V14.01,2013-03-15 07:57:00,
2013-03-15 03:58:00,34.3,15.2,30.27,WNW,297,0.0,0.0,45,0.00,,---,0.00,VWS V14.01,2013-03-15 07:58:00,
2013-03-15 03:59:00,34.3,15.2,30.27,WNW,297,0.0,0.0,45,0.00,,---,0.00,VWS V14.01,2013-03-15 07:59:00,
2013-03-15 04:02:00,34.3,15.2,30.27,WNW,297,0.0,0.0,45,0.00,,---,0.00,VWS V14.01,2013-03-15 08:02:00,
2013-03-15 04:03:00,34.3,15.2,30.27,NW,323,0.0,0.0,45,0.00,,---,0.00,VWS V14.01,2013-03-15 08:03:00,
2013-03-15 04:04:00,34.3,15.2,30.27,NW,323,0.0,0.0,45,0.00,,---,0.00,VWS V14.01,2013-03-15 08:04:00,
2013-03-15 04:07:00,34.3,15.2,30.27,NW,311,0.0,0.0,45,0.00,,---,0.00,VWS V14.01,2013-03-15 08:07:00,
2013-03-15 04:08:00,34.3,15.2,30.27,West,280,0.0,0.0,45,0.00,,---,0.00,VWS V14.01,2013-03-15 08:08:00,
2013-03-15 04:09:00,34.3,15.2,30.27,West,280,0.0,0.0,45,0.00,,---,0.00,VWS V14.01,2013-03-15 08:09:00,
2013-03-15 04:13:00,34.3,15.2,30.27,West,280,0.0,0.0,45,0.00,,---,0.00,VWS V14.01,2013-03-15 08:13:00,
2013-03-15 04:14:00,34.3,14.7,30.27,West,280,0.0,0.0,44,0.00,,---,0.00,VWS V14.01,2013-03-15 08:14:00,
2013-03-15 04:18:00,34.2,14.5,30.27,WNW,293,0.0,0.0,44,0.00,,---,0.00,VWS V14.01,2013-03-15 08:18:00,
2013-03-15 04:19:00,34.2,14.5,30.27,WNW,293,0.0,0.0,44,0.00,,---,0.00,VWS V14.01,2013-03-15 08:19:00,
2013-03-15 04:23:00,34.0,14.4,30.27,WNW,293,0.0,0.0,44,0.00,,---,0.00,VWS V14.01,2013-03-15 08:23:00,
2013-03-15 04:24:00,33.8,14.2,30.27,WNW,293,0.0,0.0,44,0.00,,---,0.00,VWS V14.01,2013-03-15 08:24:00,
2013-03-15 04:28:00,33.6,14.1,30.27,WNW,293,0.0,0.0,44,0.00,,---,0.00,VWS V14.01,2013-03-15 08:28:00,
2013-03-15 04:29:00,33.6,14.1,30.27,NW,304,0.0,0.0,44,0.00,,---,0.00,VWS V14.01,2013-03-15 08:29:00,
2013-03-15 04:33:00,33.4,13.9,30.27,NW,304,0.0,0.0,44,0.00,,---,0.00,VWS V14.01,2013-03-15 08:33:00,
2013-03-15 04:34:00,33.4,13.9,30.27,NW,304,0.0,0.0,44,0.00,,---,0.00,VWS V14.01,2013-03-15 08:34:00,
2013-03-15 04:35:00,33.4,13.9,30.27,NW,304,0.0,0.0,44,0.00,,---,0.00,VWS V14.01,2013-03-15 08:35:00,
2013-03-15 04:38:00,33.4,13.9,30.27,NW,304,0.0,0.0,44,0.00,,---,0.00,VWS V14.01,2013-03-15 08:38:00,
2013-03-15 04:39:00,33.4,13.9,30.27,NW,304,0.0,0.0,44,0.00,,---,0.00,VWS V14.01,2013-03-15 08:39:00,
2013-03-15 04:40:00,33.4,13.9,30.27,NW,304,0.0,0.0,44,0.00,,---,0.00,VWS V14.01,2013-03-15 08:40:00,
2013-03-15 04:43:00,33.3,13.7,30.27,NW,305,0.0,0.0,44,0.00,,---,0.00,VWS V14.01,2013-03-15 08:43:00,
2013-03-15 04:44:00,33.3,13.7,30.27,NW,305,0.0,0.0,44,0.00,,---,0.00,VWS V14.01,2013-03-15 08:44:00,
2013-03-15 04:45:00,33.3,13.7,30.27,NW,305,0.0,0.0,44,0.00,,---,0.00,VWS V14.01,2013-03-15 08:45:00,
2013-03-15 04:48:00,32.9,13.4,30.27,NW,305,0.0,0.0,44,0.00,,---,0.00,VWS V14.01,2013-03-15 08:48:00,
2013-03-15 04:49:00,32.9,13.4,30.27,NW,305,0.0,0.0,44,0.00,,---,0.00,VWS V14.01,2013-03-15 08:49:00,
2013-03-15 04:50:00,32.9,13.4,30.27,NW,305,0.0,0.0,44,0.00,,---,0.00,VWS V14.01,2013-03-15 08:50:00,
2013-03-15 04:54:00,32.5,13.1,30.27,NW,305,0.0,0.0,44,0.00,,---,0.00,VWS V14.01,2013-03-15 08:54:00,
2013-03-15 04:55:00,32.5,13.1,30.27,NW,305,0.0,0.0,44,0.00,,---,0.00,VWS V14.01,2013-03-15 08:55:00,
2013-03-15 04:59:00,32.4,12.9,30.27,NW,322,0.0,0.0,44,0.00,,---,0.00,VWS V14.01,2013-03-15 08:59:00,
2013-03-15 05:00:00,32.4,12.9,30.27,NW,322,0.0,0.0,44,0.00,,---,0.00,VWS V14.01,2013-03-15 09:00:00,
2013-03-15 05:04:00,32.2,12.7,30.27,NW,324,0.0,0.0,44,0.00,,---,0.00,VWS V14.01,2013-03-15 09:04:00,
2013-03-15 05:05:00,32.2,12.7,30.27,NW,324,0.0,0.0,44,0.00,,---,0.00,VWS V14.01,2013-03-15 09:05:00,
2013-03-15 05:09:00,32.0,12.6,30.27,NW,324,0.0,0.0,44,0.00,,---,0.00,VWS V14.01,2013-03-15 09:09:00,
2013-03-15 05:10:00,32.0,12.6,30.27,NW,324,0.0,0.0,44,0.00,,---,0.00,VWS V14.01,2013-03-15 09:10:00,
2013-03-15 05:14:00,31.8,12.4,30.27,NW,324,0.0,0.0,44,0.00,,---,0.00,VWS V14.01,2013-03-15 09:14:00,
2013-03-15 05:15:00,31.6,12.2,30.27,NW,324,0.0,0.0,44,0.00,,---,0.00,VWS V14.01,2013-03-15 09:15:00,
2013-03-15 05:19:00,31.5,12.6,30.27,NW,324,0.0,0.0,45,0.00,,---,0.00,VWS V14.01,2013-03-15 09:19:00,
2013-03-15 05:20:00,31.3,12.4,30.27,NW,324,0.0,0.0,45,0.00,,---,0.00,VWS V14.01,2013-03-15 09:20:00,
2013-03-15 05:24:00,31.1,12.2,30.27,NW,324,0.0,0.0,45,0.00,,---,0.00,VWS V14.01,2013-03-15 09:24:00,
2013-03-15 05:25:00,31.1,12.2,30.27,NW,324,0.0,0.0,45,0.00,,---,0.00,VWS V14.01,2013-03-15 09:25:00,
2013-03-15 05:29:00,30.9,12.1,30.27,NW,324,0.0,0.0,45,0.00,,---,0.00,VWS V14.01,2013-03-15 09:29:00,
2013-03-15 05:30:00,30.7,11.9,30.27,NW,324,0.0,0.0,45,0.00,,---,0.00,VWS V14.01,2013-03-15 09:30:00,
2013-03-15 05:34:00,30.6,11.8,30.27,NW,324,0.0,0.0,45,0.00,,---,0.00,VWS V14.01,2013-03-15 09:34:00,
2013-03-15 05:35:00,30.4,11.6,30.27,NW,324,0.0,0.0,45,0.00,,---,0.00,VWS V14.01,2013-03-15 09:35:00,
2013-03-15 05:39:00,30.2,11.4,30.27,NW,324,0.0,0.0,45,0.00,,---,0.00,VWS V14.01,2013-03-15 09:39:00,
2013-03-15 05:40:00,30.0,11.8,30.27,NW,324,0.0,0.0,46,0.00,,---,0.00,VWS V14.01,2013-03-15 09:40:00,
2013-03-15 05:44:00,29.8,11.6,30.27,NW,324,0.0,0.0,46,0.00,,---,0.00,VWS V14.01,2013-03-15 09:44:00,
2013-03-15 05:45:00,29.7,11.4,30.27,NW,324,0.0,0.0,46,0.00,,---,0.00,VWS V14.01,2013-03-15 09:45:00,
2013-03-15 05:49:00,29.5,11.3,30.27,NW,324,0.0,0.0,46,0.00,,---,0.00,VWS V14.01,2013-03-15 09:49:00,
2013-03-15 05:50:00,29.5,11.3,30.27,NW,324,0.0,0.0,46,0.00,,---,0.00,VWS V14.01,2013-03-15 09:50:00,
2013-03-15 05:54:00,29.5,11.8,30.27,NW,324,0.0,0.0,47,0.00,,---,0.00,VWS V14.01,2013-03-15 09:54:00,
2013-03-15 05:55:00,29.5,11.8,30.27,NW,324,0.0,0.0,47,0.00,,---,0.00,VWS V14.01,2013-03-15 09:55:00,
2013-03-15 05:59:00,29.3,11.6,30.27,NW,324,0.0,0.0,47,0.00,,---,0.00,VWS V14.01,2013-03-15 09:59:00,
2013-03-15 06:00:00,29.3,11.6,30.27,NW,324,0.0,0.0,47,0.00,,---,0.00,VWS V14.01,2013-03-15 10:00:00,
2013-03-15 06:04:00,29.1,11.4,30.27,NW,324,0.0,0.0,47,0.00,,---,0.00,VWS V14.01,2013-03-15 10:04:00,
2013-03-15 06:05:00,28.9,11.2,30.27,NW,324,0.0,0.0,47,0.00,,---,0.00,VWS V14.01,2013-03-15 10:05:00,
2013-03-15 06:09:00,28.8,11.1,30.27,NW,324,0.0,0.0,47,0.00,,---,0.00,VWS V14.01,2013-03-15 10:09:00,
2013-03-15 06:10:00,28.8,11.1,30.27,NW,324,0.0,0.0,47,0.00,,---,0.00,VWS V14.01,2013-03-15 10:10:00,
2013-03-15 06:14:00,28.8,11.1,30.27,NW,321,0.0,0.0,47,0.00,,---,0.00,VWS V14.01,2013-03-15 10:14:00,
2013-03-15 06:15:00,28.8,11.1,30.27,NW,321,0.0,0.0,47,0.00,,---,0.00,VWS V14.01,2013-03-15 10:15:00,
2013-03-15 06:19:00,28.8,11.6,30.27,NW,321,0.0,0.0,48,0.00,,---,0.00,VWS V14.01,2013-03-15 10:19:00,
2013-03-15 06:20:00,28.6,11.4,30.27,NW,321,0.0,0.0,48,0.00,,---,0.00,VWS V14.01,2013-03-15 10:20:00,
2013-03-15 06:24:00,28.6,11.4,30.27,NW,321,0.0,0.0,48,0.00,,---,0.00,VWS V14.01,2013-03-15 10:24:00,
2013-03-15 06:25:00,28.6,11.4,30.27,NW,321,0.0,0.0,48,0.00,,---,0.00,VWS V14.01,2013-03-15 10:25:00,
2013-03-15 06:29:00,28.4,11.7,30.27,NW,314,0.0,0.0,49,0.00,,---,0.00,VWS V14.01,2013-03-15 10:29:00,
2013-03-15 06:30:00,28.4,11.7,30.27,NW,314,0.0,0.0,49,0.00,,---,0.00,VWS V14.01,2013-03-15 10:30:00,
2013-03-15 06:34:00,28.4,11.7,30.27,NW,314,0.0,0.0,49,0.00,,---,0.00,VWS V14.01,2013-03-15 10:34:00,
2013-03-15 06:36:00,28.2,11.5,30.27,NW,314,0.0,0.0,49,0.00,,---,0.00,VWS V14.01,2013-03-15 10:36:00,
2013-03-15 06:39:00,28.2,11.5,30.27,NW,314,0.0,0.0,49,0.00,,---,0.00,VWS V14.01,2013-03-15 10:39:00,
2013-03-15 06:40:00,28.2,11.5,30.27,NW,312,0.0,0.0,49,0.00,,---,0.00,VWS V14.01,2013-03-15 10:40:00,
2013-03-15 06:44:00,28.2,12.0,30.27,NW,312,0.0,0.0,50,0.00,,---,0.00,VWS V14.01,2013-03-15 10:44:00,
2013-03-15 06:45:00,28.2,12.0,30.27,NW,312,0.0,0.0,50,0.00,,---,0.00,VWS V14.01,2013-03-15 10:45:00,
2013-03-15 06:46:00,28.2,12.0,30.30,NW,312,0.0,0.0,50,0.00,,---,0.00,VWS V14.01,2013-03-15 10:46:00,
2013-03-15 06:49:00,28.2,12.0,30.30,NW,312,0.0,0.0,50,0.00,,---,0.00,VWS V14.01,2013-03-15 10:49:00,
2013-03-15 06:50:00,28.2,12.0,30.30,NW,312,0.0,0.0,50,0.00,,---,0.00,VWS V14.01,2013-03-15 10:50:00,
2013-03-15 06:51:00,28.2,12.0,30.30,NW,312,0.0,0.0,50,0.00,,---,0.00,VWS V14.01,2013-03-15 10:51:00,
2013-03-15 06:54:00,28.2,12.0,30.30,NW,312,0.0,0.0,50,0.00,,---,0.00,VWS V14.01,2013-03-15 10:54:00,
2013-03-15 06:55:00,28.2,12.0,30.30,NW,312,0.0,0.0,50,0.00,,---,0.00,VWS V14.01,2013-03-15 10:55:00,
2013-03-15 06:56:00,28.2,12.0,30.30,NW,312,0.0,0.0,50,0.00,,---,0.00,VWS V14.01,2013-03-15 10:56:00,
2013-03-15 06:59:00,28.0,11.8,30.30,NW,312,0.0,0.0,50,0.00,,---,0.00,VWS V14.01,2013-03-15 10:59:00,
2013-03-15 07:00:00,28.0,11.8,30.30,NW,312,0.0,0.0,50,0.00,,---,0.00,VWS V14.01,2013-03-15 11:00:00,
2013-03-15 07:01:00,28.0,11.8,30.30,NW,312,0.0,0.0,50,0.00,,---,0.00,VWS V14.01,2013-03-15 11:01:00,
2013-03-15 07:05:00,28.0,11.8,30.30,NW,312,0.0,0.0,50,0.00,,---,0.00,VWS V14.01,2013-03-15 11:05:00,
2013-03-15 07:06:00,28.0,11.8,30.30,NW,312,0.0,0.0,50,0.00,,---,0.00,VWS V14.01,2013-03-15 11:06:00,
2013-03-15 07:10:00,28.0,12.3,30.30,NW,312,0.0,0.0,51,0.00,,---,0.00,VWS V14.01,2013-03-15 11:10:00,
2013-03-15 07:12:00,27.9,12.1,30.30,NW,312,0.0,0.0,51,0.00,,---,0.00,VWS V14.01,2013-03-15 11:12:00,
2013-03-15 07:15:00,27.9,12.1,30.30,NW,312,0.0,0.0,51,0.00,,---,0.00,VWS V14.01,2013-03-15 11:15:00,
2013-03-15 07:17:00,27.9,12.1,30.30,NW,312,0.0,0.0,51,0.00,,---,0.00,VWS V14.01,2013-03-15 11:17:00,
2013-03-15 07:20:00,27.9,12.1,30.30,NW,312,0.0,0.0,51,0.00,,---,0.00,VWS V14.01,2013-03-15 11:20:00,
2013-03-15 07:22:00,27.7,11.9,30.30,NW,312,0.0,0.0,51,0.00,,---,0.00,VWS V14.01,2013-03-15 11:22:00,
2013-03-15 07:25:00,27.7,11.9,30.30,NW,312,0.0,0.0,51,0.00,,---,0.00,VWS V14.01,2013-03-15 11:25:00,
2013-03-15 07:27:00,27.9,12.1,30.30,NW,312,0.0,0.0,51,0.00,,---,0.00,VWS V14.01,2013-03-15 11:27:00,
2013-03-15 07:30:00,27.9,12.1,30.30,NW,312,0.0,0.0,51,0.00,,---,0.00,VWS V14.01,2013-03-15 11:30:00,
2013-03-15 07:32:00,27.9,12.1,30.30,NW,312,0.0,0.0,51,0.00,,---,0.00,VWS V14.01,2013-03-15 11:32:00,
2013-03-15 07:35:00,27.9,12.1,30.30,NW,312,0.0,0.0,51,0.00,,---,0.00,VWS V14.01,2013-03-15 11:35:00,
2013-03-15 07:37:00,27.9,12.5,30.30,NW,312,0.0,0.0,52,0.00,,---,0.00,VWS V14.01,2013-03-15 11:37:00,
2013-03-15 07:40:00,27.9,12.5,30.30,NW,312,0.0,0.0,52,0.00,,---,0.00,VWS V14.01,2013-03-15 11:40:00,
2013-03-15 07:42:00,27.9,12.5,30.30,NW,312,0.0,0.0,52,0.00,,---,0.00,VWS V14.01,2013-03-15 11:42:00,
2013-03-15 07:45:00,27.9,12.5,30.30,NW,312,0.0,0.0,52,0.00,,---,0.00,VWS V14.01,2013-03-15 11:45:00,
2013-03-15 07:47:00,27.9,12.5,30.30,NW,312,0.0,0.0,52,0.00,,---,0.00,VWS V14.01,2013-03-15 11:47:00,
2013-03-15 07:50:00,27.9,12.5,30.30,NW,312,0.0,0.0,52,0.00,,---,0.00,VWS V14.01,2013-03-15 11:50:00,
2013-03-15 07:52:00,28.0,12.7,30.30,NW,312,0.0,0.0,52,0.00,,---,0.00,VWS V14.01,2013-03-15 11:52:00,
2013-03-15 07:55:00,28.4,13.0,30.30,NW,312,0.0,0.0,52,0.00,,---,0.00,VWS V14.01,2013-03-15 11:55:00,
2013-03-15 07:57:00,28.4,13.0,30.30,NW,312,0.0,0.0,52,0.00,,---,0.00,VWS V14.01,2013-03-15 11:57:00,
2013-03-15 08:00:00,28.6,13.2,30.30,NW,312,0.0,0.0,52,0.00,,---,0.00,VWS V14.01,2013-03-15 12:00:00,
2013-03-15 08:02:00,28.9,13.5,30.30,NW,311,0.0,0.0,52,0.00,,---,0.00,VWS V14.01,2013-03-15 12:02:00,
2013-03-15 08:05:00,29.5,14.0,30.30,NW,311,0.0,0.0,52,0.00,,---,0.00,VWS V14.01,2013-03-15 12:05:00,
2013-03-15 08:07:00,29.7,14.2,30.30,NW,311,0.0,0.0,52,0.00,,---,0.00,VWS V14.01,2013-03-15 12:07:00,
2013-03-15 08:10:00,30.2,15.1,30.30,NW,311,0.0,0.0,53,0.00,,---,0.00,VWS V14.01,2013-03-15 12:10:00,
2013-03-15 08:12:00,30.6,15.0,30.30,West,266,0.0,0.0,52,0.00,,---,0.00,VWS V14.01,2013-03-15 12:12:00,
2013-03-15 08:15:00,30.9,15.4,30.30,West,266,0.0,0.0,52,0.00,,---,0.00,VWS V14.01,2013-03-15 12:15:00,
2013-03-15 08:16:00,30.9,15.4,30.30,West,266,0.0,0.0,52,0.00,,---,0.00,VWS V14.01,2013-03-15 12:16:00,
2013-03-15 08:17:00,31.3,15.7,30.30,West,266,0.0,0.0,52,0.00,,---,0.00,VWS V14.01,2013-03-15 12:17:00,
2013-03-15 08:20:00,31.8,16.2,30.30,West,266,0.0,0.0,52,0.00,,---,0.00,VWS V14.01,2013-03-15 12:20:00,
2013-03-15 08:21:00,32.0,16.4,30.30,West,266,0.0,0.0,52,0.00,,---,0.00,VWS V14.01,2013-03-15 12:21:00,
2013-03-15 08:22:00,32.2,16.5,30.30,West,266,0.0,0.0,52,0.00,,---,0.00,VWS V14.01,2013-03-15 12:22:00,
2013-03-15 08:25:00,32.7,17.0,30.30,West,266,0.0,0.0,52,0.00,,---,0.00,VWS V14.01,2013-03-15 12:25:00,
2013-03-15 08:26:00,32.9,17.7,30.30,WNW,287,0.0,0.0,53,0.00,,---,0.00,VWS V14.01,2013-03-15 12:26:00,
2013-03-15 08:27:00,33.1,17.8,30.30,WNW,287,0.0,0.0,53,0.00,,---,0.00,VWS V14.01,2013-03-15 12:27:00,
2013-03-15 08:30:00,33.6,18.3,30.30,WNW,287,0.0,0.0,53,0.00,,---,0.00,VWS V14.01,2013-03-15 12:30:00,
2013-03-15 08:31:00,33.8,18.0,30.30,NW,322,0.0,0.0,52,0.00,,---,0.00,VWS V14.01,2013-03-15 12:31:00,
2013-03-15 08:32:00,34.2,18.4,30.30,NW,322,0.0,0.0,52,0.00,,---,0.00,VWS V14.01,2013-03-15 12:32:00,
2013-03-15 08:35:00,34.5,18.7,30.30,NW,322,0.0,0.0,52,0.00,,---,0.00,VWS V14.01,2013-03-15 12:35:00,
2013-03-15 08:36:00,34.5,18.7,30.30,NW,322,0.0,0.0,52,0.00,,---,0.00,VWS V14.01,2013-03-15 12:36:00,
2013-03-15 08:37:00,35.2,19.4,30.30,NW,322,0.0,0.0,52,0.00,,---,0.00,VWS V14.01,2013-03-15 12:37:00,
2013-03-15 08:40:00,35.8,19.9,30.30,NW,322,0.0,0.0,52,0.00,,---,0.00,VWS V14.01,2013-03-15 12:40:00,
2013-03-15 08:41:00,36.1,20.2,30.30,NW,322,0.0,0.0,52,0.00,,---,0.00,VWS V14.01,2013-03-15 12:41:00,
2013-03-15 08:42:00,36.3,20.4,30.30,NW,322,0.0,0.0,52,0.00,,---,0.00,VWS V14.01,2013-03-15 12:42:00,
2013-03-15 08:45:00,37.0,21.1,30.30,NW,322,0.0,0.0,52,0.00,,---,0.00,VWS V14.01,2013-03-15 12:45:00,
2013-03-15 08:47:00,37.0,21.1,30.30,NW,322,0.0,0.0,52,0.00,,---,0.00,VWS V14.01,2013-03-15 12:47:00,
2013-03-15 08:50:00,38.1,21.6,30.30,NW,322,0.0,0.0,51,0.00,,---,0.00,VWS V14.01,2013-03-15 12:50:00,
2013-03-15 08:52:00,38.3,21.3,30.30,NW,322,0.0,0.0,50,0.00,,---,0.00,VWS V14.01,2013-03-15 12:52:00,
2013-03-15 08:55:00,39.2,21.7,30.30,West,278,4.0,4.0,49,0.00,,---,0.00,VWS V14.01,2013-03-15 12:55:00,
2013-03-15 08:57:00,39.7,22.2,30.30,West,278,4.0,4.0,49,0.00,,---,0.00,VWS V14.01,2013-03-15 12:57:00,
2013-03-15 08:58:00,39.7,21.7,30.30,West,278,4.0,4.0,48,0.00,,---,0.00,VWS V14.01,2013-03-15 12:58:00,
2013-03-15 09:00:00,40.1,22.0,30.30,West,278,4.0,4.0,48,0.00,,---,0.00,VWS V14.01,2013-03-15 13:00:00,
2013-03-15 09:02:00,40.5,21.3,30.30,West,278,4.0,4.0,46,0.00,,---,0.00,VWS V14.01,2013-03-15 13:02:00,
2013-03-15 09:03:00,40.6,21.5,30.30,West,278,4.0,4.0,46,0.00,,---,0.00,VWS V14.01,2013-03-15 13:03:00,
2013-03-15 09:05:00,41.0,20.8,30.30,WNW,288,0.0,0.0,44,0.00,,---,0.00,VWS V14.01,2013-03-15 13:05:00,
2013-03-15 09:07:00,41.2,20.4,30.30,West,261,4.0,4.0,43,0.00,,---,0.00,VWS V14.01,2013-03-15 13:07:00,
2013-03-15 09:08:00,41.4,20.6,30.30,West,261,4.0,4.0,43,0.00,,---,0.00,VWS V14.01,2013-03-15 13:08:00,
2013-03-15 09:10:00,41.7,19.8,30.30,West,261,4.0,4.0,41,0.00,,---,0.00,VWS V14.01,2013-03-15 13:10:00,
2013-03-15 09:12:00,42.1,20.1,30.30,West,261,4.0,4.0,41,0.00,,---,0.00,VWS V14.01,2013-03-15 13:12:00,
2013-03-15 09:13:00,42.1,20.1,30.30,West,261,4.0,4.0,41,0.00,,---,0.00,VWS V14.01,2013-03-15 13:13:00,
2013-03-15 09:15:00,42.6,20.0,30.30,West,261,4.0,4.0,40,0.00,,---,0.00,VWS V14.01,2013-03-15 13:15:00,
2013-03-15 09:17:00,43.0,20.3,30.30,West,261,4.0,4.0,40,0.00,,---,0.00,VWS V14.01,2013-03-15 13:17:00,
2013-03-15 09:18:00,43.0,20.3,30.30,West,261,4.0,4.0,40,0.00,,---,0.00,VWS V14.01,2013-03-15 13:18:00,
2013-03-15 09:20:00,43.3,20.1,30.30,West,272,3.6,3.6,39,0.00,,---,0.00,VWS V14.01,2013-03-15 13:20:00,
2013-03-15 09:21:00,43.3,20.1,30.30,West,272,3.6,3.6,39,0.00,,---,0.00,VWS V14.01,2013-03-15 13:21:00,
2013-03-15 09:22:00,43.7,20.4,30.30,West,272,3.6,3.6,39,0.00,,---,0.00,VWS V14.01,2013-03-15 13:22:00,
2013-03-15 09:23:00,43.7,20.4,30.30,West,272,3.6,3.6,39,0.00,,---,0.00,VWS V14.01,2013-03-15 13:23:00,
2013-03-15 09:25:00,44.1,20.7,30.30,West,272,3.6,3.6,39,0.00,,---,0.00,VWS V14.01,2013-03-15 13:25:00,
2013-03-15 09:27:00,44.2,20.9,30.30,West,268,3.6,3.6,39,0.00,,---,0.00,VWS V14.01,2013-03-15 13:27:00,
2013-03-15 09:28:00,44.2,20.9,30.30,West,268,3.6,3.6,39,0.00,,---,0.00,VWS V14.01,2013-03-15 13:28:00,
2013-03-15 09:30:00,44.6,20.6,30.30,West,268,3.6,3.6,38,0.00,,---,0.00,VWS V14.01,2013-03-15 13:30:00,
2013-03-15 09:31:00,44.6,20.6,30.30,West,268,3.6,3.6,38,0.00,,---,0.00,VWS V14.01,2013-03-15 13:31:00,
2013-03-15 09:32:00,44.8,20.7,30.30,West,268,3.6,3.6,38,0.00,,---,0.00,VWS V14.01,2013-03-15 13:32:00,
2013-03-15 09:33:00,44.8,20.7,30.30,West,260,2.7,2.7,38,0.00,,---,0.00,VWS V14.01,2013-03-15 13:33:00,
2013-03-15 09:35:00,44.8,20.7,30.30,West,260,2.7,2.7,38,0.00,,---,0.00,VWS V14.01,2013-03-15 13:35:00,
2013-03-15 09:36:00,45.1,21.1,30.30,West,260,2.7,2.7,38,0.00,,---,0.00,VWS V14.01,2013-03-15 13:36:00,
2013-03-15 09:37:00,45.3,21.2,30.30,NNW,341,4.9,4.9,38,0.00,,---,0.00,VWS V14.01,2013-03-15 13:37:00,
2013-03-15 09:38:00,45.3,21.2,30.30,NNW,341,4.9,4.9,38,0.00,,---,0.00,VWS V14.01,2013-03-15 13:38:00,
2013-03-15 09:40:00,45.9,21.7,30.30,West,273,6.3,6.3,38,0.00,,---,0.00,VWS V14.01,2013-03-15 13:40:00,
2013-03-15 09:41:00,45.9,21.7,30.30,West,273,6.3,6.3,38,0.00,,---,0.00,VWS V14.01,2013-03-15 13:41:00,
2013-03-15 09:42:00,46.0,21.9,30.30,West,262,0.0,0.0,38,0.00,,---,0.00,VWS V14.01,2013-03-15 13:42:00,
2013-03-15 09:43:00,46.0,21.9,30.30,West,262,0.0,0.0,38,0.00,,---,0.00,VWS V14.01,2013-03-15 13:43:00,
2013-03-15 09:46:00,46.4,21.6,30.30,West,262,0.0,0.0,37,0.00,,---,0.00,VWS V14.01,2013-03-15 13:46:00,
2013-03-15 09:48:00,46.9,22.0,30.30,North,11,4.9,4.9,37,0.00,,---,0.00,VWS V14.01,2013-03-15 13:48:00,
2013-03-15 09:51:00,47.1,22.2,30.30,North,11,4.9,4.9,37,0.00,,---,0.00,VWS V14.01,2013-03-15 13:51:00,
2013-03-15 09:53:00,47.3,22.4,30.30,North,11,4.9,4.9,37,0.00,,---,0.00,VWS V14.01,2013-03-15 13:53:00,
2013-03-15 09:56:00,47.3,22.4,30.30,North,11,4.9,4.9,37,0.00,,---,0.00,VWS V14.01,2013-03-15 13:56:00,
2013-03-15 09:57:00,47.5,22.5,30.30,North,11,4.9,4.9,37,0.00,,---,0.00,VWS V14.01,2013-03-15 13:57:00,
2013-03-15 09:58:00,47.5,22.5,30.30,North,11,4.9,4.9,37,0.00,,---,0.00,VWS V14.01,2013-03-15 13:58:00,
2013-03-15 10:01:00,47.5,22.5,30.30,NW,322,6.3,6.3,37,0.00,,---,0.00,VWS V14.01,2013-03-15 14:01:00,
2013-03-15 10:02:00,47.5,22.5,30.30,NW,322,6.3,6.3,37,0.00,,---,0.00,VWS V14.01,2013-03-15 14:02:00,
2013-03-15 10:03:00,47.7,22.7,30.30,NW,322,6.3,6.3,37,0.00,,---,0.00,VWS V14.01,2013-03-15 14:03:00,
2013-03-15 10:07:00,48.2,23.2,30.30,NW,322,6.3,6.3,37,0.00,,---,0.00,VWS V14.01,2013-03-15 14:07:00,
2013-03-15 10:08:00,48.2,23.2,30.30,NW,322,6.3,6.3,37,0.00,,---,0.00,VWS V14.01,2013-03-15 14:08:00,
2013-03-15 10:12:00,48.2,23.2,30.30,NW,322,6.3,6.3,37,0.00,,---,0.00,VWS V14.01,2013-03-15 14:12:00,
2013-03-15 10:13:00,48.2,23.2,30.30,NNW,348,4.0,4.0,37,0.00,,---,0.00,VWS V14.01,2013-03-15 14:13:00,
2013-03-15 10:17:00,48.6,23.5,30.30,NNW,348,4.0,4.0,37,0.00,,---,0.00,VWS V14.01,2013-03-15 14:17:00,
2013-03-15 10:18:00,48.6,23.5,30.30,NNW,348,4.0,4.0,37,0.00,,---,0.00,VWS V14.01,2013-03-15 14:18:00,
2013-03-15 10:22:00,48.9,23.8,30.30,NNW,348,4.0,4.0,37,0.00,,---,0.00,VWS V14.01,2013-03-15 14:22:00,
2013-03-15 10:23:00,48.9,23.8,30.30,NNW,348,4.0,4.0,37,0.00,,---,0.00,VWS V14.01,2013-03-15 14:23:00,
2013-03-15 10:27:00,49.1,24.0,30.30,NNW,348,4.0,4.0,37,0.00,,---,0.00,VWS V14.01,2013-03-15 14:27:00,
2013-03-15 10:28:00,49.1,24.0,30.30,NNW,348,4.0,4.0,37,0.00,,---,0.00,VWS V14.01,2013-03-15 14:28:00,
2013-03-15 10:32:00,49.3,24.1,30.30,NNW,348,4.0,4.0,37,0.00,,---,0.00,VWS V14.01,2013-03-15 14:32:00,
2013-03-15 10:33:00,49.3,24.1,30.30,NNW,348,4.0,4.0,37,0.00,,---,0.00,VWS V14.01,2013-03-15 14:33:00,
2013-03-15 10:37:00,49.5,24.3,30.30,NNW,348,4.0,4.0,37,0.00,,---,0.00,VWS V14.01,2013-03-15 14:37:00,
2013-03-15 10:38:00,49.5,24.3,30.30,NNW,348,4.0,4.0,37,0.00,,---,0.00,VWS V14.01,2013-03-15 14:38:00,
2013-03-15 10:42:00,49.6,24.5,30.30,West,260,3.1,3.1,37,0.00,,---,0.00,VWS V14.01,2013-03-15 14:42:00,
2013-03-15 10:43:00,49.6,24.5,30.30,WSW,249,3.6,3.6,37,0.00,,---,0.00,VWS V14.01,2013-03-15 14:43:00,
2013-03-15 10:47:00,49.8,24.6,30.30,SSW,202,0.0,0.0,37,0.00,,---,0.00,VWS V14.01,2013-03-15 14:47:00,
2013-03-15 10:48:00,50.0,24.8,30.30,SSW,202,0.0,0.0,37,0.00,,---,0.00,VWS V14.01,2013-03-15 14:48:00,
2013-03-15 10:52:00,50.7,25.4,30.30,SSW,202,0.0,0.0,37,0.00,,---,0.00,VWS V14.01,2013-03-15 14:52:00,
2013-03-15 10:53:00,50.9,25.6,30.30,NW,318,0.0,0.0,37,0.00,,---,0.00,VWS V14.01,2013-03-15 14:53:00,
2013-03-15 10:54:00,50.9,25.6,30.30,NW,318,0.0,0.0,37,0.00,,---,0.00,VWS V14.01,2013-03-15 14:54:00,
2013-03-15 10:57:00,51.1,25.7,30.30,NW,318,0.0,0.0,37,0.00,,---,0.00,VWS V14.01,2013-03-15 14:57:00,
2013-03-15 10:58:00,51.1,25.7,30.30,NW,318,0.0,0.0,37,0.00,,---,0.00,VWS V14.01,2013-03-15 14:58:00,
2013-03-15 10:59:00,50.9,25.6,30.30,NW,318,0.0,0.0,37,0.00,,---,0.00,VWS V14.01,2013-03-15 14:59:00,
2013-03-15 11:02:00,50.9,25.6,30.30,NW,318,0.0,0.0,37,0.00,,---,0.00,VWS V14.01,2013-03-15 15:02:00,
2013-03-15 11:03:00,50.9,25.6,30.30,NW,318,0.0,0.0,37,0.00,,---,0.00,VWS V14.01,2013-03-15 15:03:00,
2013-03-15 11:04:00,50.9,25.6,30.30,NW,318,0.0,0.0,37,0.00,,---,0.00,VWS V14.01,2013-03-15 15:04:00,
2013-03-15 11:07:00,50.9,25.6,30.30,South,187,3.1,3.1,37,0.00,,---,0.00,VWS V14.01,2013-03-15 15:07:00,
2013-03-15 11:08:00,50.9,25.6,30.30,South,187,3.1,3.1,37,0.00,,---,0.00,VWS V14.01,2013-03-15 15:08:00,
2013-03-15 11:09:00,51.1,25.7,30.30,South,187,3.1,3.1,37,0.00,,---,0.00,VWS V14.01,2013-03-15 15:09:00,
2013-03-15 11:12:00,51.4,26.0,30.30,South,187,3.1,3.1,37,0.00,,---,0.00,VWS V14.01,2013-03-15 15:12:00,
2013-03-15 11:13:00,51.4,26.0,30.30,WNW,290,6.3,6.3,37,0.00,,---,0.00,VWS V14.01,2013-03-15 15:13:00,
2013-03-15 11:14:00,51.4,26.0,30.30,WNW,290,6.3,6.3,37,0.00,,---,0.00,VWS V14.01,2013-03-15 15:14:00,
2013-03-15 11:17:00,51.6,26.2,30.30,WSW,250,4.0,4.0,37,0.00,,---,0.00,VWS V14.01,2013-03-15 15:17:00,
2013-03-15 11:18:00,51.8,25.7,30.30,WSW,246,3.6,3.6,36,0.00,,---,0.00,VWS V14.01,2013-03-15 15:18:00,
2013-03-15 11:19:00,51.8,25.7,30.27,WSW,246,3.6,3.6,36,0.00,,---,0.00,VWS V14.01,2013-03-15 15:19:00,
2013-03-15 11:22:00,52.5,26.4,30.27,WSW,253,0.0,0.0,36,0.00,,---,0.00,VWS V14.01,2013-03-15 15:22:00,
2013-03-15 11:24:00,52.7,26.5,30.27,WSW,253,0.0,0.0,36,0.00,,---,0.00,VWS V14.01,2013-03-15 15:24:00,
2013-03-15 11:28:00,52.7,26.5,30.27,WSW,253,0.0,0.0,36,0.00,,---,0.00,VWS V14.01,2013-03-15 15:28:00,
2013-03-15 11:29:00,52.7,26.5,30.27,WSW,253,0.0,0.0,36,0.00,,---,0.00,VWS V14.01,2013-03-15 15:29:00,
2013-03-15 11:32:00,52.3,26.2,30.27,NNW,329,3.1,3.1,36,0.00,,---,0.00,VWS V14.01,2013-03-15 15:32:00,
2013-03-15 11:34:00,52.3,26.2,30.27,NNW,329,3.1,3.1,36,0.00,,---,0.00,VWS V14.01,2013-03-15 15:34:00,
2013-03-15 11:38:00,52.3,26.2,30.27,NE,40,4.0,4.0,36,0.00,,---,0.00,VWS V14.01,2013-03-15 15:38:00,
2013-03-15 11:39:00,52.5,26.4,30.27,NE,40,4.0,4.0,36,0.00,,---,0.00,VWS V14.01,2013-03-15 15:39:00,
2013-03-15 11:43:00,52.5,26.4,30.27,NE,40,4.0,4.0,36,0.00,,---,0.00,VWS V14.01,2013-03-15 15:43:00,
2013-03-15 11:44:00,52.5,26.4,30.27,NE,40,4.0,4.0,36,0.00,,---,0.00,VWS V14.01,2013-03-15 15:44:00,
2013-03-15 11:48:00,53.1,26.8,30.27,West,267,5.8,5.8,36,0.00,,---,0.00,VWS V14.01,2013-03-15 15:48:00,
2013-03-15 11:49:00,53.2,27.0,30.27,West,267,5.8,5.8,36,0.00,,---,0.00,VWS V14.01,2013-03-15 15:49:00,
2013-03-15 11:50:00,53.4,27.1,30.27,West,267,5.8,5.8,36,0.00,,---,0.00,VWS V14.01,2013-03-15 15:50:00,
2013-03-15 11:53:00,53.6,27.3,30.27,WNW,297,4.9,4.9,36,0.00,,---,0.00,VWS V14.01,2013-03-15 15:53:00,
2013-03-15 11:54:00,53.4,27.1,30.27,WNW,297,4.9,4.9,36,0.00,,---,0.00,VWS V14.01,2013-03-15 15:54:00,
2013-03-15 11:55:00,53.4,27.1,30.27,WNW,297,4.9,4.9,36,0.00,,---,0.00,VWS V14.01,2013-03-15 15:55:00,
2013-03-15 11:58:00,53.4,27.1,30.27,WNW,297,4.9,4.9,36,0.00,,---,0.00,VWS V14.01,2013-03-15 15:58:00,
2013-03-15 11:59:00,53.2,27.0,30.27,SW,233,5.8,5.8,36,0.00,,---,0.00,VWS V14.01,2013-03-15 15:59:00,
2013-03-15 12:00:00,53.2,27.0,30.27,SW,233,5.8,5.8,36,0.00,,---,0.00,VWS V14.01,2013-03-15 16:00:00,
2013-03-15 12:03:00,53.2,27.0,30.27,SW,233,5.8,5.8,36,0.00,,---,0.00,VWS V14.01,2013-03-15 16:03:00,
2013-03-15 12:04:00,53.1,26.8,30.27,SW,233,5.8,5.8,36,0.00,,---,0.00,VWS V14.01,2013-03-15 16:04:00,
2013-03-15 12:05:00,53.1,26.8,30.27,SW,233,5.8,5.8,36,0.00,,---,0.00,VWS V14.01,2013-03-15 16:05:00,
2013-03-15 12:08:00,53.1,26.8,30.27,SW,233,5.8,5.8,36,0.00,,---,0.00,VWS V14.01,2013-03-15 16:08:00,
2013-03-15 12:09:00,53.2,27.0,30.27,West,281,7.6,7.6,36,0.00,,---,0.00,VWS V14.01,2013-03-15 16:09:00,
2013-03-15 12:10:00,53.2,27.0,30.27,West,281,7.6,7.6,36,0.00,,---,0.00,VWS V14.01,2013-03-15 16:10:00,
2013-03-15 12:13:00,53.4,27.1,30.27,WSW,252,0.0,5.4,36,0.00,,---,0.00,VWS V14.01,2013-03-15 16:13:00,
2013-03-15 12:14:00,53.4,27.1,30.27,WSW,252,0.0,0.0,36,0.00,,---,0.00,VWS V14.01,2013-03-15 16:14:00,
2013-03-15 12:15:00,53.8,27.5,30.27,WSW,252,0.0,0.0,36,0.00,,---,0.00,VWS V14.01,2013-03-15 16:15:00,
2013-03-15 12:18:00,54.1,27.8,30.27,WSW,252,0.0,0.0,36,0.00,,---,0.00,VWS V14.01,2013-03-15 16:18:00,
2013-03-15 12:19:00,54.1,27.8,30.27,WSW,252,0.0,0.0,36,0.00,,---,0.00,VWS V14.01,2013-03-15 16:19:00,
2013-03-15 12:20:00,54.1,27.8,30.27,WSW,252,0.0,0.0,36,0.00,,---,0.00,VWS V14.01,2013-03-15 16:20:00,
2013-03-15 12:23:00,54.5,28.1,30.27,SSW,197,3.1,3.1,36,0.00,,---,0.00,VWS V14.01,2013-03-15 16:23:00,
2013-03-15 12:24:00,54.5,28.1,30.27,WSW,239,4.0,4.0,36,0.00,,---,0.00,VWS V14.01,2013-03-15 16:24:00,
2013-03-15 12:25:00,55.0,28.6,30.27,WSW,239,4.0,4.0,36,0.00,,---,0.00,VWS V14.01,2013-03-15 16:25:00,
2013-03-15 12:28:00,55.2,28.8,30.27,SSW,196,3.6,3.6,36,0.00,,---,0.00,VWS V14.01,2013-03-15 16:28:00,
2013-03-15 12:29:00,55.2,28.8,30.27,SSW,196,3.6,3.6,36,0.00,,---,0.00,VWS V14.01,2013-03-15 16:29:00,
2013-03-15 12:30:00,55.0,28.6,30.27,SSW,196,3.6,3.6,36,0.00,,---,0.00,VWS V14.01,2013-03-15 16:30:00,
2013-03-15 12:33:00,54.7,28.3,30.27,SSW,196,3.6,3.6,36,0.00,,---,0.00,VWS V14.01,2013-03-15 16:33:00,
2013-03-15 12:34:00,54.7,28.3,30.27,SSW,196,3.6,3.6,36,0.00,,---,0.00,VWS V14.01,2013-03-15 16:34:00,
2013-03-15 12:35:00,54.5,28.1,30.27,South,178,3.6,3.6,36,0.00,,---,0.00,VWS V14.01,2013-03-15 16:35:00,
2013-03-15 12:38:00,54.7,28.3,30.27,South,178,3.6,3.6,36,0.00,,---,0.00,VWS V14.01,2013-03-15 16:38:00,
2013-03-15 12:39:00,54.7,28.3,30.27,SSE,167,3.1,3.6,36,0.00,,---,0.00,VWS V14.01,2013-03-15 16:39:00,
2013-03-15 12:40:00,54.7,28.3,30.27,SSE,167,3.1,3.6,36,0.00,,---,0.00,VWS V14.01,2013-03-15 16:40:00,
2013-03-15 12:43:00,54.9,28.4,30.27,SSE,167,3.1,3.1,36,0.00,,---,0.00,VWS V14.01,2013-03-15 16:43:00,
2013-03-15 12:44:00,55.0,28.6,30.24,SSW,192,3.1,3.1,36,0.00,,---,0.00,VWS V14.01,2013-03-15 16:44:00,
2013-03-15 12:45:00,55.0,28.6,30.24,SSW,192,3.1,3.1,36,0.00,,---,0.00,VWS V14.01,2013-03-15 16:45:00,
2013-03-15 12:48:00,55.0,28.6,30.24,SSW,192,3.1,3.1,36,0.00,,---,0.00,VWS V14.01,2013-03-15 16:48:00,
2013-03-15 12:49:00,55.0,28.6,30.24,SSW,192,3.1,3.1,36,0.00,,---,0.00,VWS V14.01,2013-03-15 16:49:00,
2013-03-15 12:50:00,55.0,28.6,30.24,SSW,192,3.1,3.1,36,0.00,,---,0.00,VWS V14.01,2013-03-15 16:50:00,
2013-03-15 12:53:00,54.7,28.3,30.24,SSW,192,3.1,3.1,36,0.00,,---,0.00,VWS V14.01,2013-03-15 16:53:00,
2013-03-15 12:54:00,54.5,28.1,30.24,SSW,192,3.1,3.1,36,0.00,,---,0.00,VWS V14.01,2013-03-15 16:54:00,
2013-03-15 12:55:00,54.5,28.1,30.24,SSW,192,3.1,3.1,36,0.00,,---,0.00,VWS V14.01,2013-03-15 16:55:00,
2013-03-15 12:58:00,54.5,28.1,30.24,SSW,192,3.1,3.1,36,0.00,,---,0.00,VWS V14.01,2013-03-15 16:58:00,
2013-03-15 12:59:00,54.7,28.3,30.24,SSW,192,3.1,3.1,36,0.00,,---,0.00,VWS V14.01,2013-03-15 16:59:00,
2013-03-15 13:00:00,54.7,28.3,30.24,SSW,192,3.1,3.1,36,0.00,,---,0.00,VWS V14.01,2013-03-15 17:00:00,
2013-03-15 13:03:00,54.9,28.4,30.24,SSW,192,3.1,3.1,36,0.00,,---,0.00,VWS V14.01,2013-03-15 17:03:00,
2013-03-15 13:04:00,55.0,28.6,30.24,SW,215,4.0,4.0,36,0.00,,---,0.00,VWS V14.01,2013-03-15 17:04:00,
2013-03-15 13:05:00,55.0,28.6,30.24,SW,215,4.0,4.0,36,0.00,,---,0.00,VWS V14.01,2013-03-15 17:05:00,
2013-03-15 13:08:00,54.5,28.1,30.24,SW,229,6.3,6.3,36,0.00,,---,0.00,VWS V14.01,2013-03-15 17:08:00,
2013-03-15 13:09:00,54.5,28.1,30.24,SW,229,6.3,6.3,36,0.00,,---,0.00,VWS V14.01,2013-03-15 17:09:00,
2013-03-15 13:10:00,54.5,28.1,30.24,SW,229,6.3,6.3,36,0.00,,---,0.00,VWS V14.01,2013-03-15 17:10:00,
2013-03-15 13:14:00,54.3,28.0,30.24,SW,229,6.3,6.3,36,0.00,,---,0.00,VWS V14.01,2013-03-15 17:14:00,
2013-03-15 13:15:00,54.3,28.0,30.24,SW,229,6.3,6.3,36,0.00,,---,0.00,VWS V14.01,2013-03-15 17:15:00,
2013-03-15 13:19:00,54.3,28.0,30.24,SSW,208,3.6,6.3,36,0.00,,---,0.00,VWS V14.01,2013-03-15 17:19:00,
2013-03-15 13:20:00,54.3,28.0,30.24,SSW,208,3.6,3.6,36,0.00,,---,0.00,VWS V14.01,2013-03-15 17:20:00,
2013-03-15 13:24:00,54.0,27.6,30.24,SSW,208,3.6,3.6,36,0.00,,---,0.00,VWS V14.01,2013-03-15 17:24:00,
2013-03-15 13:25:00,54.0,27.6,30.24,SSW,208,3.6,3.6,36,0.00,,---,0.00,VWS V14.01,2013-03-15 17:25:00,
2013-03-15 13:29:00,54.3,28.0,30.24,SSE,157,8.3,8.3,36,0.00,,---,0.00,VWS V14.01,2013-03-15 17:29:00,
2013-03-15 13:30:00,54.5,28.1,30.24,SSW,205,5.8,5.8,36,0.00,,---,0.00,VWS V14.01,2013-03-15 17:30:00,
2013-03-15 13:34:00,54.7,28.3,30.24,WSW,255,3.1,3.1,36,0.00,,---,0.00,VWS V14.01,2013-03-15 17:34:00,
2013-03-15 13:35:00,54.7,28.3,30.24,SSW,195,6.3,6.3,36,0.00,,---,0.00,VWS V14.01,2013-03-15 17:35:00,
2013-03-15 13:36:00,54.9,28.4,30.24,SSW,195,6.3,6.3,36,0.00,,---,0.00,VWS V14.01,2013-03-15 17:36:00,
2013-03-15 13:39:00,55.0,28.6,30.24,SSW,195,6.3,6.3,36,0.00,,---,0.00,VWS V14.01,2013-03-15 17:39:00,
2013-03-15 13:40:00,55.0,28.6,30.24,SSW,208,3.6,6.3,36,0.00,,---,0.00,VWS V14.01,2013-03-15 17:40:00,
2013-03-15 13:41:00,55.0,28.6,30.24,SSW,208,3.6,3.6,36,0.00,,---,0.00,VWS V14.01,2013-03-15 17:41:00,
2013-03-15 13:44:00,54.9,28.4,30.24,SSW,208,3.6,3.6,36,0.00,,---,0.00,VWS V14.01,2013-03-15 17:44:00,
2013-03-15 13:45:00,54.9,28.4,30.24,SSW,208,3.6,3.6,36,0.00,,---,0.00,VWS V14.01,2013-03-15 17:45:00,
2013-03-15 13:46:00,54.9,28.4,30.24,South,187,2.7,2.7,36,0.00,,---,0.00,VWS V14.01,2013-03-15 17:46:00,
2013-03-15 13:49:00,54.5,28.1,30.24,South,177,3.6,3.6,36,0.00,,---,0.00,VWS V14.01,2013-03-15 17:49:00,
2013-03-15 13:50:00,54.7,28.3,30.24,South,177,3.6,3.6,36,0.00,,---,0.00,VWS V14.01,2013-03-15 17:50:00,
2013-03-15 13:52:00,54.9,28.4,30.21,South,177,3.6,3.6,36,0.00,,---,0.00,VWS V14.01,2013-03-15 17:52:00,
2013-03-15 13:54:00,55.0,28.6,30.21,South,177,3.6,3.6,36,0.00,,---,0.00,VWS V14.01,2013-03-15 17:54:00,
2013-03-15 13:55:00,55.2,28.8,30.21,South,177,3.6,3.6,36,0.00,,---,0.00,VWS V14.01,2013-03-15 17:55:00,
2013-03-15 13:57:00,55.4,28.2,30.21,South,177,3.6,3.6,35,0.00,,---,0.00,VWS V14.01,2013-03-15 17:57:00,
2013-03-15 13:59:00,55.6,28.4,30.21,South,173,3.6,3.6,35,0.00,,---,0.00,VWS V14.01,2013-03-15 17:59:00,
2013-03-15 14:00:00,55.6,28.4,30.21,South,173,3.6,3.6,35,0.00,,---,0.00,VWS V14.01,2013-03-15 18:00:00,
2013-03-15 14:02:00,55.8,28.5,30.21,WNW,299,2.7,6.3,35,0.00,,---,0.00,VWS V14.01,2013-03-15 18:02:00,
2013-03-15 14:04:00,55.8,28.5,30.21,SSE,168,10.1,10.1,35,0.00,,---,0.00,VWS V14.01,2013-03-15 18:04:00,
2013-03-15 14:05:00,55.6,28.4,30.21,SSE,168,10.1,10.1,35,0.00,,---,0.00,VWS V14.01,2013-03-15 18:05:00,
2013-03-15 14:07:00,55.6,28.4,30.21,SSE,168,10.1,10.1,35,0.00,,---,0.00,VWS V14.01,2013-03-15 18:07:00,
2013-03-15 14:09:00,55.8,28.5,30.21,SSE,168,10.1,10.1,35,0.00,,---,0.00,VWS V14.01,2013-03-15 18:09:00,
2013-03-15 14:10:00,55.8,28.5,30.21,SSE,168,10.1,10.1,35,0.00,,---,0.00,VWS V14.01,2013-03-15 18:10:00,
2013-03-15 14:11:00,55.8,28.5,30.21,South,176,12.8,12.8,35,0.00,,---,0.00,VWS V14.01,2013-03-15 18:11:00,
2013-03-15 14:12:00,55.8,28.5,30.21,South,183,3.6,12.8,35,0.00,,---,0.00,VWS V14.01,2013-03-15 18:12:00,
2013-03-15 14:14:00,55.6,28.4,30.21,South,183,3.6,3.6,35,0.00,,---,0.00,VWS V14.01,2013-03-15 18:14:00,
2013-03-15 14:15:00,55.6,28.4,30.21,South,183,3.6,3.6,35,0.00,,---,0.00,VWS V14.01,2013-03-15 18:15:00,
2013-03-15 14:16:00,55.4,28.2,30.21,South,183,3.6,3.6,35,0.00,,---,0.00,VWS V14.01,2013-03-15 18:16:00,
2013-03-15 14:17:00,55.4,28.2,30.21,South,183,3.6,3.6,35,0.00,,---,0.00,VWS V14.01,2013-03-15 18:17:00,
2013-03-15 14:19:00,55.6,28.4,30.21,SSE,151,8.3,8.3,35,0.00,,---,0.00,VWS V14.01,2013-03-15 18:19:00,
2013-03-15 14:20:00,55.6,28.4,30.21,SSE,151,8.3,8.3,35,0.00,,---,0.00,VWS V14.01,2013-03-15 18:20:00,
2013-03-15 14:21:00,55.6,28.4,30.21,SSE,151,8.3,8.3,35,0.00,,---,0.00,VWS V14.01,2013-03-15 18:21:00,
2013-03-15 14:22:00,55.6,28.4,30.21,SSE,148,6.3,8.3,35,0.00,,---,0.00,VWS V14.01,2013-03-15 18:22:00,
2013-03-15 14:24:00,55.6,28.4,30.21,SSW,200,3.6,3.6,35,0.00,,---,0.00,VWS V14.01,2013-03-15 18:24:00,
2013-03-15 14:25:00,55.6,28.4,30.21,SSW,200,3.6,3.6,35,0.00,,---,0.00,VWS V14.01,2013-03-15 18:25:00,
2013-03-15 14:26:00,55.6,28.4,30.21,South,171,5.4,5.4,35,0.00,,---,0.00,VWS V14.01,2013-03-15 18:26:00,
2013-03-15 14:27:00,55.8,28.5,30.21,South,171,5.4,5.4,35,0.00,,---,0.00,VWS V14.01,2013-03-15 18:27:00,
2013-03-15 14:29:00,55.9,28.7,30.21,SE,143,10.1,10.1,35,0.00,,---,0.00,VWS V14.01,2013-03-15 18:29:00,
2013-03-15 14:30:00,55.9,28.7,30.21,SE,143,10.1,10.1,35,0.00,,---,0.00,VWS V14.01,2013-03-15 18:30:00,
2013-03-15 14:31:00,56.1,28.9,30.21,SE,143,10.1,10.1,35,0.00,,---,0.00,VWS V14.01,2013-03-15 18:31:00,
2013-03-15 14:32:00,56.1,28.9,30.21,SSE,168,10.1,10.1,35,0.00,,---,0.00,VWS V14.01,2013-03-15 18:32:00,
2013-03-15 14:34:00,56.1,28.9,30.21,SSE,168,10.1,10.1,35,0.00,,---,0.00,VWS V14.01,2013-03-15 18:34:00,
2013-03-15 14:35:00,56.1,28.9,30.21,SSE,168,10.1,10.1,35,0.00,,---,0.00,VWS V14.01,2013-03-15 18:35:00,
2013-03-15 14:36:00,55.9,28.7,30.21,SW,229,7.6,7.6,35,0.00,,---,0.00,VWS V14.01,2013-03-15 18:36:00,
2013-03-15 14:37:00,55.9,28.7,30.21,SSW,205,4.0,4.0,35,0.00,,---,0.00,VWS V14.01,2013-03-15 18:37:00,
2013-03-15 14:39:00,55.8,28.5,30.21,SSE,165,4.9,4.9,35,0.00,,---,0.00,VWS V14.01,2013-03-15 18:39:00,
2013-03-15 14:40:00,55.4,28.2,30.21,SSE,165,4.9,4.9,35,0.00,,---,0.00,VWS V14.01,2013-03-15 18:40:00,
2013-03-15 14:41:00,55.4,28.2,30.21,South,184,5.8,5.8,35,0.00,,---,0.00,VWS V14.01,2013-03-15 18:41:00,
2013-03-15 14:42:00,55.6,28.4,30.21,South,184,5.8,5.8,35,0.00,,---,0.00,VWS V14.01,2013-03-15 18:42:00,
2013-03-15 14:44:00,55.8,28.5,30.18,SE,131,5.8,5.8,35,0.00,,---,0.00,VWS V14.01,2013-03-15 18:44:00,
2013-03-15 14:45:00,55.8,28.5,30.18,SE,131,5.8,5.8,35,0.00,,---,0.00,VWS V14.01,2013-03-15 18:45:00,
2013-03-15 14:46:00,55.9,28.7,30.18,SSE,164,3.6,3.6,35,0.00,,---,0.00,VWS V14.01,2013-03-15 18:46:00,
2013-03-15 14:47:00,55.9,28.7,30.18,SSE,164,3.6,3.6,35,0.00,,---,0.00,VWS V14.01,2013-03-15 18:47:00,
2013-03-15 14:49:00,56.3,29.0,30.18,SSE,164,3.6,3.6,35,0.00,,---,0.00,VWS V14.01,2013-03-15 18:49:00,
2013-03-15 14:50:00,56.3,29.0,30.18,SSE,167,6.3,6.3,35,0.00,,---,0.00,VWS V14.01,2013-03-15 18:50:00,
2013-03-15 14:51:00,56.3,29.0,30.18,SSE,167,6.3,6.3,35,0.00,,---,0.00,VWS V14.01,2013-03-15 18:51:00,
2013-03-15 14:52:00,56.3,29.0,30.18,South,175,9.6,9.6,35,0.00,,---,0.00,VWS V14.01,2013-03-15 18:52:00,
2013-03-15 14:55:00,56.7,29.3,30.18,SW,228,8.1,9.6,35,0.00,,---,0.00,VWS V14.01,2013-03-15 18:55:00,
2013-03-15 14:56:00,56.7,29.3,30.18,SW,228,8.1,8.1,35,0.00,,---,0.00,VWS V14.01,2013-03-15 18:56:00,
2013-03-15 14:58:00,56.7,29.3,30.18,SW,228,8.1,8.1,35,0.00,,---,0.00,VWS V14.01,2013-03-15 18:58:00,
2013-03-15 15:00:00,56.5,29.2,30.18,SE,140,3.6,8.1,35,0.00,,---,0.00,VWS V14.01,2013-03-15 19:00:00,
2013-03-15 15:01:00,56.7,29.3,30.18,SE,140,3.6,3.6,35,0.00,,---,0.00,VWS V14.01,2013-03-15 19:01:00,
2013-03-15 15:03:00,56.7,29.3,30.18,SE,140,3.6,3.6,35,0.00,,---,0.00,VWS V14.01,2013-03-15 19:03:00,
2013-03-15 15:05:00,56.7,29.3,30.18,SE,140,3.6,3.6,35,0.00,,---,0.00,VWS V14.01,2013-03-15 19:05:00,
2013-03-15 15:07:00,56.5,29.2,30.18,SSW,213,2.7,2.7,35,0.00,,---,0.00,VWS V14.01,2013-03-15 19:07:00,
2013-03-15 15:08:00,56.3,29.0,30.18,SSW,205,3.6,3.6,35,0.00,,---,0.00,VWS V14.01,2013-03-15 19:08:00,
2013-03-15 15:10:00,55.8,28.5,30.18,ESE,117,3.6,3.6,35,0.00,,---,0.00,VWS V14.01,2013-03-15 19:10:00,
2013-03-15 15:12:00,55.6,28.4,30.18,ESE,117,3.6,3.6,35,0.00,,---,0.00,VWS V14.01,2013-03-15 19:12:00,
2013-03-15 15:13:00,55.6,28.4,30.18,SE,138,3.1,3.1,35,0.00,,---,0.00,VWS V14.01,2013-03-15 19:13:00,
2013-03-15 15:15:00,55.6,28.4,30.18,SE,138,3.1,3.1,35,0.00,,---,0.00,VWS V14.01,2013-03-15 19:15:00,
2013-03-15 15:17:00,55.8,28.5,30.18,ESE,108,3.6,3.6,35,0.00,,---,0.00,VWS V14.01,2013-03-15 19:17:00,
2013-03-15 15:18:00,55.9,28.7,30.18,ESE,108,3.6,3.6,35,0.00,,---,0.00,VWS V14.01,2013-03-15 19:18:00,
2013-03-15 15:20:00,55.9,28.7,30.18,SE,133,4.9,4.9,35,0.00,,---,0.00,VWS V14.01,2013-03-15 19:20:00,
2013-03-15 15:22:00,55.8,28.5,30.18,SE,127,4.9,6.7,35,0.00,,---,0.00,VWS V14.01,2013-03-15 19:22:00,
2013-03-15 15:23:00,55.9,28.7,30.18,SE,127,4.9,4.9,35,0.00,,---,0.00,VWS V14.01,2013-03-15 19:23:00,
2013-03-15 15:25:00,56.1,28.9,30.18,SE,127,4.9,4.9,35,0.00,,---,0.00,VWS V14.01,2013-03-15 19:25:00,
2013-03-15 15:27:00,56.3,29.0,30.18,WNW,283,3.6,3.6,35,0.00,,---,0.00,VWS V14.01,2013-03-15 19:27:00,
2013-03-15 15:28:00,56.1,28.9,30.18,ESE,118,2.7,2.7,35,0.00,,---,0.00,VWS V14.01,2013-03-15 19:28:00,
2013-03-15 15:30:00,56.1,28.9,30.18,ESE,118,2.7,2.7,35,0.00,,---,0.00,VWS V14.01,2013-03-15 19:30:00,
2013-03-15 15:31:00,56.1,28.9,30.18,SSW,198,8.1,8.1,35,0.00,,---,0.00,VWS V14.01,2013-03-15 19:31:00,
2013-03-15 15:32:00,55.9,28.7,30.18,SSW,208,8.3,8.3,35,0.00,,---,0.00,VWS V14.01,2013-03-15 19:32:00,
2013-03-15 15:33:00,55.8,28.5,30.18,SSW,208,8.3,8.3,35,0.00,,---,0.00,VWS V14.01,2013-03-15 19:33:00,
2013-03-15 15:35:00,55.8,28.5,30.18,SSE,159,3.1,8.3,35,0.00,,---,0.00,VWS V14.01,2013-03-15 19:35:00,
2013-03-15 15:36:00,55.8,28.5,30.18,SSE,159,3.1,3.1,35,0.00,,---,0.00,VWS V14.01,2013-03-15 19:36:00,
2013-03-15 15:37:00,55.8,28.5,30.18,SSE,159,3.1,3.1,35,0.00,,---,0.00,VWS V14.01,2013-03-15 19:37:00,
2013-03-15 15:38:00,55.9,28.7,30.18,SSE,159,3.1,3.1,35,0.00,,---,0.00,VWS V14.01,2013-03-15 19:38:00,
2013-03-15 15:40:00,56.1,28.9,30.18,South,189,5.4,5.4,35,0.00,,---,0.00,VWS V14.01,2013-03-15 19:40:00,
2013-03-15 15:41:00,56.1,28.9,30.18,South,189,5.4,5.4,35,0.00,,---,0.00,VWS V14.01,2013-03-15 19:41:00,
2013-03-15 15:42:00,56.3,29.0,30.18,East,82,4.9,4.9,35,0.00,,---,0.00,VWS V14.01,2013-03-15 19:42:00,
2013-03-15 15:43:00,56.3,29.0,30.18,SSE,161,8.1,8.1,35,0.00,,---,0.00,VWS V14.01,2013-03-15 19:43:00,
2013-03-15 15:45:00,56.3,29.0,30.18,SSE,161,8.1,8.1,35,0.00,,---,0.00,VWS V14.01,2013-03-15 19:45:00,
2013-03-15 15:46:00,56.3,29.0,30.18,SSW,202,5.4,5.4,35,0.00,,---,0.00,VWS V14.01,2013-03-15 19:46:00,
2013-03-15 15:47:00,56.3,29.0,30.18,SSW,202,5.4,5.4,35,0.00,,---,0.00,VWS V14.01,2013-03-15 19:47:00,
2013-03-15 15:49:00,56.3,29.0,30.18,South,170,5.4,5.4,35,0.00,,---,0.00,VWS V14.01,2013-03-15 19:49:00,
2013-03-15 15:50:00,55.9,28.7,30.18,SSW,212,5.8,5.8,35,0.00,,---,0.00,VWS V14.01,2013-03-15 19:50:00,
2013-03-15 15:51:00,55.9,28.7,30.18,SSW,212,5.8,5.8,35,0.00,,---,0.00,VWS V14.01,2013-03-15 19:51:00,
2013-03-15 15:52:00,55.9,28.7,30.18,SSW,209,6.3,6.3,35,0.00,,---,0.00,VWS V14.01,2013-03-15 19:52:00,
2013-03-15 15:54:00,55.8,28.5,30.18,SSW,209,6.3,6.3,35,0.00,,---,0.00,VWS V14.01,2013-03-15 19:54:00,
2013-03-15 15:55:00,55.8,28.5,30.18,South,181,4.0,4.0,35,0.00,,---,0.00,VWS V14.01,2013-03-15 19:55:00,
2013-03-15 15:56:00,55.8,28.5,30.18,South,181,4.0,4.0,35,0.00,,---,0.00,VWS V14.01,2013-03-15 19:56:00,
2013-03-15 15:57:00,55.9,28.7,30.18,SSE,159,5.8,5.8,35,0.00,,---,0.00,VWS V14.01,2013-03-15 19:57:00,
2013-03-15 15:59:00,56.1,28.9,30.18,ESE,109,6.3,6.3,35,0.00,,---,0.00,VWS V14.01,2013-03-15 19:59:00,
2013-03-15 16:00:00,56.1,28.9,30.18,ESE,109,6.3,6.3,35,0.00,,---,0.00,VWS V14.01,2013-03-15 20:00:00,
2013-03-15 16:02:00,56.1,28.9,30.18,SE,127,6.3,6.3,35,0.00,,---,0.00,VWS V14.01,2013-03-15 20:02:00,
2013-03-15 16:04:00,55.9,28.7,30.15,SE,127,6.3,6.3,35,0.00,,---,0.00,VWS V14.01,2013-03-15 20:04:00,
2013-03-15 16:05:00,55.8,28.5,30.15,SE,127,6.3,6.3,35,0.00,,---,0.00,VWS V14.01,2013-03-15 20:05:00,
2013-03-15 16:07:00,55.8,28.5,30.15,SW,220,7.6,7.6,35,0.00,,---,0.00,VWS V14.01,2013-03-15 20:07:00,
2013-03-15 16:09:00,55.6,28.4,30.15,SW,220,7.6,7.6,35,0.00,,---,0.00,VWS V14.01,2013-03-15 20:09:00,
2013-03-15 16:10:00,55.6,28.4,30.15,ESE,120,7.6,7.6,35,0.00,,---,0.00,VWS V14.01,2013-03-15 20:10:00,
2013-03-15 16:12:00,55.6,28.4,30.15,SW,234,3.6,7.6,35,0.00,,---,0.00,VWS V14.01,2013-03-15 20:12:00,
2013-03-15 16:13:00,55.6,28.4,30.15,SW,234,3.6,3.6,35,0.00,,---,0.00,VWS V14.01,2013-03-15 20:13:00,
2013-03-15 16:14:00,55.6,28.4,30.15,SSE,163,3.6,3.6,35,0.00,,---,0.00,VWS V14.01,2013-03-15 20:14:00,
2013-03-15 16:15:00,55.6,28.4,30.15,SSE,154,4.0,4.0,35,0.00,,---,0.00,VWS V14.01,2013-03-15 20:15:00,
2013-03-15 16:18:00,55.8,28.5,30.15,SSE,154,4.0,4.0,35,0.00,,---,0.00,VWS V14.01,2013-03-15 20:18:00,
2013-03-15 16:19:00,55.9,28.7,30.15,SSE,154,3.1,3.1,35,0.00,,---,0.00,VWS V14.01,2013-03-15 20:19:00,
2013-03-15 16:20:00,55.9,28.7,30.15,SSE,154,3.1,3.1,35,0.00,,---,0.00,VWS V14.01,2013-03-15 20:20:00,
2013-03-15 16:23:00,55.8,28.5,30.15,SSE,154,3.1,3.1,35,0.00,,---,0.00,VWS V14.01,2013-03-15 20:23:00,
2013-03-15 16:24:00,55.8,28.5,30.15,SE,127,3.6,3.6,35,0.00,,---,0.00,VWS V14.01,2013-03-15 20:24:00,
2013-03-15 16:25:00,55.6,28.4,30.15,SSW,208,5.4,7.6,35,0.00,,---,0.00,VWS V14.01,2013-03-15 20:25:00,
2013-03-15 16:28:00,55.4,28.2,30.15,SSW,197,2.7,2.7,35,0.00,,---,0.00,VWS V14.01,2013-03-15 20:28:00,
2013-03-15 16:29:00,55.4,28.2,30.15,SSW,197,2.7,2.7,35,0.00,,---,0.00,VWS V14.01,2013-03-15 20:29:00,
2013-03-15 16:30:00,55.4,28.2,30.15,SSW,197,2.7,2.7,35,0.00,,---,0.00,VWS V14.01,2013-03-15 20:30:00,
2013-03-15 16:33:00,55.4,28.2,30.15,SSW,197,2.7,2.7,35,0.00,,---,0.00,VWS V14.01,2013-03-15 20:33:00,
2013-03-15 16:34:00,55.4,28.2,30.15,South,170,5.4,5.4,35,0.00,,---,0.00,VWS V14.01,2013-03-15 20:34:00,
2013-03-15 16:35:00,55.2,28.8,30.15,South,170,5.4,5.4,36,0.00,,---,0.00,VWS V14.01,2013-03-15 20:35:00,
2013-03-15 16:38:00,55.0,28.6,30.15,SSE,164,5.4,5.4,36,0.00,,---,0.00,VWS V14.01,2013-03-15 20:38:00,
2013-03-15 16:39:00,55.0,28.6,30.15,SSE,159,6.3,6.3,36,0.00,,---,0.00,VWS V14.01,2013-03-15 20:39:00,
2013-03-15 16:40:00,55.0,28.6,30.15,SSE,159,6.3,6.3,36,0.00,,---,0.00,VWS V14.01,2013-03-15 20:40:00,
2013-03-15 16:43:00,54.9,28.4,30.15,SSW,207,6.3,6.3,36,0.00,,---,0.00,VWS V14.01,2013-03-15 20:43:00,
2013-03-15 16:44:00,54.9,28.4,30.15,SW,229,4.0,6.3,36,0.00,,---,0.00,VWS V14.01,2013-03-15 20:44:00,
2013-03-15 16:45:00,54.9,28.4,30.15,South,171,6.3,6.3,36,0.00,,---,0.00,VWS V14.01,2013-03-15 20:45:00,
2013-03-15 16:48:00,55.0,28.6,30.15,WSW,240,3.6,3.6,36,0.00,,---,0.00,VWS V14.01,2013-03-15 20:48:00,
2013-03-15 16:49:00,55.0,28.6,30.15,WSW,240,3.6,3.6,36,0.00,,---,0.00,VWS V14.01,2013-03-15 20:49:00,
2013-03-15 16:51:00,55.0,28.6,30.15,SSE,167,5.4,5.4,36,0.00,,---,0.00,VWS V14.01,2013-03-15 20:51:00,
2013-03-15 16:53:00,54.9,28.4,30.15,SSE,163,8.7,8.7,36,0.00,,---,0.00,VWS V14.01,2013-03-15 20:53:00,
2013-03-15 16:55:00,54.9,28.4,30.15,SSW,203,5.4,8.7,36,0.00,,---,0.00,VWS V14.01,2013-03-15 20:55:00,
2013-03-15 16:56:00,54.9,28.4,30.15,SW,234,3.1,3.1,36,0.00,,---,0.00,VWS V14.01,2013-03-15 20:56:00,
2013-03-15 16:58:00,54.9,28.4,30.15,SSW,213,4.0,4.0,36,0.00,,---,0.00,VWS V14.01,2013-03-15 20:58:00,
2013-03-15 17:00:00,54.7,28.3,30.15,SE,127,5.4,5.4,36,0.00,,---,0.00,VWS V14.01,2013-03-15 21:00:00,
2013-03-15 17:02:00,54.7,28.3,30.15,WSW,258,6.3,6.3,36,0.00,,---,0.00,VWS V14.01,2013-03-15 21:02:00,
2013-03-15 17:03:00,54.7,28.3,30.15,SSE,158,2.7,6.3,36,0.00,,---,0.00,VWS V14.01,2013-03-15 21:03:00,
2013-03-15 17:04:00,54.7,28.3,30.15,SSE,158,2.7,6.3,36,0.00,,---,0.00,VWS V14.01,2013-03-15 21:04:00,
2013-03-15 17:05:00,54.7,28.3,30.15,SSE,158,2.7,2.7,36,0.00,,---,0.00,VWS V14.01,2013-03-15 21:05:00,
2013-03-15 17:07:00,54.7,28.3,30.15,SSE,158,8.7,8.7,36,0.00,,---,0.00,VWS V14.01,2013-03-15 21:07:00,
2013-03-15 17:08:00,54.5,28.1,30.15,SSE,155,10.1,10.1,36,0.00,,---,0.00,VWS V14.01,2013-03-15 21:08:00,
2013-03-15 17:09:00,54.5,28.1,30.15,SSE,159,8.3,10.1,36,0.00,,---,0.00,VWS V14.01,2013-03-15 21:09:00,
2013-03-15 17:10:00,54.5,28.1,30.15,SSE,164,10.1,10.1,36,0.00,,---,0.00,VWS V14.01,2013-03-15 21:10:00,
2013-03-15 17:12:00,54.3,28.0,30.15,South,181,5.4,5.4,36,0.00,,---,0.00,VWS V14.01,2013-03-15 21:12:00,
2013-03-15 17:13:00,54.1,27.8,30.15,SE,138,2.7,3.6,36,0.00,,---,0.00,VWS V14.01,2013-03-15 21:13:00,
2013-03-15 17:14:00,54.1,27.8,30.15,SE,138,2.7,3.6,36,0.00,,---,0.00,VWS V14.01,2013-03-15 21:14:00,
2013-03-15 17:15:00,54.1,27.8,30.15,South,172,7.6,8.3,36,0.00,,---,0.00,VWS V14.01,2013-03-15 21:15:00,
2013-03-15 17:17:00,54.0,27.6,30.15,SSW,197,4.0,4.0,36,0.00,,---,0.00,VWS V14.01,2013-03-15 21:17:00,
2013-03-15 17:18:00,54.0,27.6,30.15,WNW,285,5.4,6.7,36,0.00,,---,0.00,VWS V14.01,2013-03-15 21:18:00,
2013-03-15 17:19:00,54.0,27.6,30.15,WNW,285,5.4,6.7,36,0.00,,---,0.00,VWS V14.01,2013-03-15 21:19:00,
2013-03-15 17:20:00,54.0,27.6,30.15,South,187,6.3,6.3,36,0.00,,---,0.00,VWS V14.01,2013-03-15 21:20:00,
2013-03-15 17:22:00,54.0,27.6,30.15,WNW,292,4.9,4.9,36,0.00,,---,0.00,VWS V14.01,2013-03-15 21:22:00,
2013-03-15 17:23:00,54.0,27.6,30.15,SE,131,3.1,4.9,36,0.00,,---,0.00,VWS V14.01,2013-03-15 21:23:00,
2013-03-15 17:24:00,54.0,27.6,30.15,SE,131,3.1,4.9,36,0.00,,---,0.00,VWS V14.01,2013-03-15 21:24:00,
2013-03-15 17:25:00,54.0,27.6,30.15,SSW,194,5.8,5.8,36,0.00,,---,0.00,VWS V14.01,2013-03-15 21:25:00,
2013-03-15 17:27:00,54.1,27.8,30.15,East,93,3.1,3.1,36,0.00,,---,0.00,VWS V14.01,2013-03-15 21:27:00,
2013-03-15 17:29:00,54.1,27.8,30.15,SW,233,2.7,3.1,36,0.00,,---,0.00,VWS V14.01,2013-03-15 21:29:00,
2013-03-15 17:30:00,54.1,27.8,30.15,ENE,66,4.0,4.0,36,0.00,,---,0.00,VWS V14.01,2013-03-15 21:30:00,
2013-03-15 17:33:00,54.0,27.6,30.15,West,277,3.1,3.1,36,0.00,,---,0.00,VWS V14.01,2013-03-15 21:33:00,
2013-03-15 17:34:00,54.0,27.6,30.15,SSE,151,3.6,11.4,36,0.00,,---,0.00,VWS V14.01,2013-03-15 21:34:00,
2013-03-15 17:35:00,54.0,27.6,30.15,ENE,67,4.9,5.8,36,0.00,,---,0.00,VWS V14.01,2013-03-15 21:35:00,
2013-03-15 17:38:00,54.0,27.6,30.15,SSW,211,5.8,5.8,36,0.00,,---,0.00,VWS V14.01,2013-03-15 21:38:00,
2013-03-15 17:39:00,54.0,27.6,30.15,SSE,156,3.1,5.8,36,0.00,,---,0.00,VWS V14.01,2013-03-15 21:39:00,
2013-03-15 17:40:00,54.0,27.6,30.15,SE,127,5.8,5.8,36,0.00,,---,0.00,VWS V14.01,2013-03-15 21:40:00,
2013-03-15 17:44:00,53.8,27.5,30.15,SSE,165,2.7,3.1,36,0.00,,---,0.00,VWS V14.01,2013-03-15 21:44:00,
2013-03-15 17:45:00,53.8,27.5,30.15,ESE,116,3.1,3.1,36,0.00,,---,0.00,VWS V14.01,2013-03-15 21:45:00,
2013-03-15 17:49:00,53.6,27.3,30.15,South,171,6.3,10.5,36,0.00,,---,0.00,VWS V14.01,2013-03-15 21:49:00,
2013-03-15 17:50:00,53.4,27.1,30.12,SSW,201,5.4,10.5,36,0.00,,---,0.00,VWS V14.01,2013-03-15 21:50:00,
2013-03-15 17:54:00,53.4,27.1,30.12,SW,226,5.4,7.6,36,0.00,,---,0.00,VWS V14.01,2013-03-15 21:54:00,
2013-03-15 17:55:00,53.4,27.1,30.12,SW,226,5.4,5.4,36,0.00,,---,0.00,VWS V14.01,2013-03-15 21:55:00,
2013-03-15 17:59:00,53.2,27.7,30.12,WSW,237,0.0,5.4,37,0.00,,---,0.00,VWS V14.01,2013-03-15 21:59:00,
2013-03-15 18:00:00,53.4,27.8,30.12,SSE,164,3.6,5.4,37,0.00,,---,0.00,VWS V14.01,2013-03-15 22:00:00,
2013-03-15 18:04:00,53.4,27.8,30.12,WSW,252,3.6,3.6,37,0.00,,---,0.00,VWS V14.01,2013-03-15 22:04:00,
2013-03-15 18:05:00,53.4,27.8,30.12,SSW,213,3.6,4.0,37,0.00,,---,0.00,VWS V14.01,2013-03-15 22:05:00,
2013-03-15 18:06:00,53.4,27.8,30.12,NNE,20,0.0,3.6,37,0.00,,---,0.00,VWS V14.01,2013-03-15 22:06:00,
2013-03-15 18:09:00,53.4,27.8,30.12,South,171,0.0,2.7,37,0.00,,---,0.00,VWS V14.01,2013-03-15 22:09:00,
2013-03-15 18:10:00,53.2,27.7,30.12,East,88,5.8,5.8,37,0.00,,---,0.00,VWS V14.01,2013-03-15 22:10:00,
2013-03-15 18:11:00,53.4,27.8,30.12,SSW,203,3.1,4.9,37,0.00,,---,0.00,VWS V14.01,2013-03-15 22:11:00,
2013-03-15 18:14:00,53.4,27.8,30.12,South,177,5.8,5.8,37,0.00,,---,0.00,VWS V14.01,2013-03-15 22:14:00,
2013-03-15 18:15:00,53.4,27.8,30.12,South,184,3.1,7.6,37,0.00,,---,0.00,VWS V14.01,2013-03-15 22:15:00,
2013-03-15 18:16:00,53.4,27.8,30.15,East,85,2.2,4.9,37,0.00,,---,0.00,VWS V14.01,2013-03-15 22:16:00,
2013-03-15 18:19:00,53.4,27.8,30.15,SSE,155,2.7,8.7,37,0.00,,---,0.00,VWS V14.01,2013-03-15 22:19:00,
2013-03-15 18:20:00,53.2,27.7,30.15,SW,220,3.6,3.6,37,0.00,,---,0.00,VWS V14.01,2013-03-15 22:20:00,
2013-03-15 18:21:00,53.2,27.7,30.15,SW,220,3.6,3.6,37,0.00,,---,0.00,VWS V14.01,2013-03-15 22:21:00,
2013-03-15 18:24:00,53.2,27.7,30.15,South,177,3.6,4.0,37,0.00,,---,0.00,VWS V14.01,2013-03-15 22:24:00,
2013-03-15 18:25:00,53.2,27.7,30.15,South,177,3.6,3.6,37,0.00,,---,0.00,VWS V14.01,2013-03-15 22:25:00,
2013-03-15 18:26:00,53.1,27.5,30.15,SW,222,3.1,3.1,37,0.00,,---,0.00,VWS V14.01,2013-03-15 22:26:00,
2013-03-15 18:29:00,53.1,27.5,30.15,SW,217,4.9,5.4,37,0.00,,---,0.00,VWS V14.01,2013-03-15 22:29:00,
2013-03-15 18:30:00,53.1,27.5,30.15,South,181,4.0,5.4,37,0.00,,---,0.00,VWS V14.01,2013-03-15 22:30:00,
2013-03-15 18:32:00,53.1,27.5,30.15,SE,128,3.6,3.6,37,0.00,,---,0.00,VWS V14.01,2013-03-15 22:32:00,
2013-03-15 18:34:00,53.1,27.5,30.15,SE,139,5.8,5.8,37,0.00,,---,0.00,VWS V14.01,2013-03-15 22:34:00,
2013-03-15 18:35:00,53.1,27.5,30.15,SW,217,2.2,2.2,37,0.00,,---,0.00,VWS V14.01,2013-03-15 22:35:00,
2013-03-15 18:37:00,52.9,27.3,30.15,SSW,193,3.6,4.5,37,0.00,,---,0.00,VWS V14.01,2013-03-15 22:37:00,
2013-03-15 18:40:00,52.9,27.3,30.15,SSE,159,3.1,3.6,37,0.00,,---,0.00,VWS V14.01,2013-03-15 22:40:00,
2013-03-15 18:42:00,52.9,27.3,30.15,SSE,161,2.7,3.6,37,0.00,,---,0.00,VWS V14.01,2013-03-15 22:42:00,
2013-03-15 18:45:00,52.7,27.2,30.15,SSW,203,3.1,3.1,37,0.00,,---,0.00,VWS V14.01,2013-03-15 22:45:00,
2013-03-15 18:47:00,52.5,27.0,30.12,SSW,194,3.1,3.1,37,0.00,,---,0.00,VWS V14.01,2013-03-15 22:47:00,
2013-03-15 18:50:00,52.5,27.0,30.12,South,191,3.6,7.6,37,0.00,,---,0.00,VWS V14.01,2013-03-15 22:50:00,
2013-03-15 18:52:00,52.3,26.9,30.12,SSW,195,4.9,4.9,37,0.00,,---,0.00,VWS V14.01,2013-03-15 22:52:00,
2013-03-15 18:55:00,52.3,26.9,30.12,SW,224,3.1,5.4,37,0.00,,---,0.00,VWS V14.01,2013-03-15 22:55:00,
2013-03-15 18:57:00,52.3,26.9,30.12,West,268,3.1,7.2,37,0.00,,---,0.00,VWS V14.01,2013-03-15 22:57:00,
2013-03-15 19:00:00,52.2,27.3,30.12,South,191,5.4,5.4,38,0.00,,---,0.00,VWS V14.01,2013-03-15 23:00:00,
2013-03-15 19:02:00,52.2,27.3,30.12,SSE,157,4.0,5.8,38,0.00,,---,0.00,VWS V14.01,2013-03-15 23:02:00,
2013-03-15 19:05:00,52.2,27.3,30.12,WSW,246,3.1,3.1,38,0.00,,---,0.00,VWS V14.01,2013-03-15 23:05:00,
2013-03-15 19:07:00,52.0,27.2,30.12,East,91,2.7,4.0,38,0.00,,---,0.00,VWS V14.01,2013-03-15 23:07:00,
2013-03-15 19:10:00,52.0,27.2,30.12,ESE,120,3.1,3.6,38,0.00,,---,0.00,VWS V14.01,2013-03-15 23:10:00,
2013-03-15 19:13:00,52.0,27.2,30.12,SSE,167,8.1,8.1,38,0.00,,---,0.00,VWS V14.01,2013-03-15 23:13:00,
2013-03-15 19:15:00,52.0,27.2,30.12,SW,233,3.1,3.1,38,0.00,,---,0.00,VWS V14.01,2013-03-15 23:15:00,
2013-03-15 19:18:00,52.0,27.2,30.12,North,357,0.0,0.0,38,0.00,,---,0.00,VWS V14.01,2013-03-15 23:18:00,
2013-03-15 19:20:00,52.0,27.2,30.12,South,173,2.7,3.1,38,0.00,,---,0.00,VWS V14.01,2013-03-15 23:20:00,
2013-03-15 19:23:00,52.0,27.2,30.12,East,101,2.7,5.4,38,0.00,,---,0.00,VWS V14.01,2013-03-15 23:23:00,
2013-03-15 19:25:00,52.0,27.2,30.12,NW,314,2.7,2.7,38,0.00,,---,0.00,VWS V14.01,2013-03-15 23:25:00,
2013-03-15 19:28:00,52.0,27.2,30.12,South,176,2.7,2.7,38,0.00,,---,0.00,VWS V14.01,2013-03-15 23:28:00,
2013-03-15 19:30:00,52.0,27.2,30.12,South,173,2.7,2.7,38,0.00,,---,0.00,VWS V14.01,2013-03-15 23:30:00,
2013-03-15 19:33:00,52.0,27.2,30.12,SW,217,2.7,2.7,38,0.00,,---,0.00,VWS V14.01,2013-03-15 23:33:00,
2013-03-15 19:35:00,52.0,27.2,30.12,SW,221,4.0,4.0,38,0.00,,---,0.00,VWS V14.01,2013-03-15 23:35:00,
2013-03-15 19:38:00,51.8,27.0,30.12,South,175,2.7,3.6,38,0.00,,---,0.00,VWS V14.01,2013-03-15 23:38:00,
2013-03-15 19:40:00,51.8,27.0,30.12,SSE,162,3.1,3.1,38,0.00,,---,0.00,VWS V14.01,2013-03-15 23:40:00,
2013-03-15 19:43:00,52.0,27.2,30.12,SSE,158,10.1,10.1,38,0.00,,---,0.00,VWS V14.01,2013-03-15 23:43:00,
2013-03-15 19:45:00,52.0,27.2,30.12,West,266,4.5,4.5,38,0.00,,---,0.00,VWS V14.01,2013-03-15 23:45:00,
2013-03-15 19:48:00,52.0,27.2,30.12,South,176,2.7,3.1,38,0.00,,---,0.00,VWS V14.01,2013-03-15 23:48:00,
2013-03-15 19:50:00,52.2,26.7,30.12,SSW,210,4.9,4.9,37,0.00,,---,0.00,VWS V14.01,2013-03-15 23:50:00,
2013-03-15 19:53:00,52.2,26.7,30.12,East,96,2.7,2.7,37,0.00,,---,0.00,VWS V14.01,2013-03-15 23:53:00,
2013-03-15 19:55:00,52.2,26.7,30.12,SSE,151,0.0,3.6,37,0.00,,---,0.00,VWS V14.01,2013-03-15 23:55:00,
2013-03-15 19:56:00,52.2,26.7,30.12,SSE,151,0.0,3.6,37,0.00,,---,0.00,VWS V14.01,2013-03-15 23:56:00,
2013-03-15 19:58:00,52.2,26.7,30.12,South,184,2.7,2.7,37,0.00,,---,0.00,VWS V14.01,2013-03-15 23:58:00,
2013-03-15 20:00:00,52.2,26.7,30.12,NE,54,0.0,3.1,37,0.00,,---,0.00,VWS V14.01,2013-03-16 00:00:00,
2013-03-15 20:01:00,52.2,27.3,30.12,NE,54,0.0,0.0,38,0.00,,---,0.00,VWS V14.01,2013-03-16 00:01:00,
2013-03-15 20:03:00,52.2,27.3,30.12,SW,230,3.6,3.6,38,0.00,,---,0.00,VWS V14.01,2013-03-16 00:03:00,
2013-03-15 20:05:00,52.2,27.3,30.12,SE,145,5.8,8.1,38,0.00,,---,0.00,VWS V14.01,2013-03-16 00:05:00,
2013-03-15 20:06:00,52.2,27.3,30.12,SE,145,5.8,8.1,38,0.00,,---,0.00,VWS V14.01,2013-03-16 00:06:00,
2013-03-15 20:08:00,52.2,27.3,30.12,WNW,285,2.2,4.0,38,0.00,,---,0.00,VWS V14.01,2013-03-16 00:08:00,
2013-03-15 20:10:00,52.3,27.5,30.12,SW,214,3.6,3.6,38,0.00,,---,0.00,VWS V14.01,2013-03-16 00:10:00,
2013-03-15 20:11:00,52.3,27.5,30.12,SW,214,3.6,3.6,38,0.00,,---,0.00,VWS V14.01,2013-03-16 00:11:00,
2013-03-15 20:13:00,52.3,27.5,30.12,SW,236,2.2,4.0,38,0.00,,---,0.00,VWS V14.01,2013-03-16 00:13:00,
2013-03-15 20:16:00,52.3,27.5,30.12,SSW,198,5.8,5.8,38,0.00,,---,0.00,VWS V14.01,2013-03-16 00:16:00,
2013-03-15 20:18:00,52.2,27.3,30.12,East,85,3.6,5.4,38,0.00,,---,0.00,VWS V14.01,2013-03-16 00:18:00,
2013-03-15 20:21:00,52.2,27.3,30.12,SSE,161,3.1,3.1,38,0.00,,---,0.00,VWS V14.01,2013-03-16 00:21:00,
2013-03-15 20:23:00,52.2,27.3,30.12,South,184,0.0,6.3,38,0.00,,---,0.00,VWS V14.01,2013-03-16 00:23:00,
2013-03-15 20:27:00,52.2,27.3,30.12,SSE,155,0.0,3.6,38,0.00,,---,0.00,VWS V14.01,2013-03-16 00:27:00,
2013-03-15 20:28:00,52.2,27.3,30.12,SW,233,0.0,2.7,38,0.00,,---,0.00,VWS V14.01,2013-03-16 00:28:00,
2013-03-15 20:32:00,52.2,27.3,30.12,SSW,199,2.2,4.0,38,0.00,,---,0.00,VWS V14.01,2013-03-16 00:32:00,
2013-03-15 20:33:00,52.2,27.3,30.12,ESE,105,0.0,0.0,38,0.00,,---,0.00,VWS V14.01,2013-03-16 00:33:00,
2013-03-15 20:37:00,52.0,27.2,30.12,South,177,3.6,3.6,38,0.00,,---,0.00,VWS V14.01,2013-03-16 00:37:00,
2013-03-15 20:39:00,52.0,27.2,30.12,SE,136,2.7,3.1,38,0.00,,---,0.00,VWS V14.01,2013-03-16 00:39:00,
2013-03-15 20:42:00,52.0,27.2,30.12,WSW,243,5.4,5.4,38,0.00,,---,0.00,VWS V14.01,2013-03-16 00:42:00,
2013-03-15 20:44:00,52.0,27.2,30.12,South,170,3.6,3.6,38,0.00,,---,0.00,VWS V14.01,2013-03-16 00:44:00,
2013-03-15 20:47:00,52.0,27.2,30.12,SSE,155,0.0,3.6,38,0.00,,---,0.00,VWS V14.01,2013-03-16 00:47:00,
2013-03-15 20:49:00,52.0,27.2,30.12,WNW,302,2.7,2.7,38,0.00,,---,0.00,VWS V14.01,2013-03-16 00:49:00,
2013-03-15 20:52:00,52.0,27.2,30.12,NE,47,3.6,3.6,38,0.00,,---,0.00,VWS V14.01,2013-03-16 00:52:00,
2013-03-15 20:54:00,52.0,27.2,30.12,SSW,193,3.6,4.0,38,0.00,,---,0.00,VWS V14.01,2013-03-16 00:54:00,
2013-03-15 20:57:00,52.0,27.2,30.12,NNE,21,2.7,2.7,38,0.00,,---,0.00,VWS V14.01,2013-03-16 00:57:00,
2013-03-15 20:59:00,52.0,27.2,30.12,WNW,300,2.2,4.0,38,0.00,,---,0.00,VWS V14.01,2013-03-16 00:59:00,
2013-03-15 21:02:00,52.0,27.8,30.12,SSW,199,0.0,0.0,39,0.00,,---,0.00,VWS V14.01,2013-03-16 01:02:00,
2013-03-15 21:04:00,52.0,27.8,30.12,West,274,2.7,2.7,39,0.00,,---,0.00,VWS V14.01,2013-03-16 01:04:00,
2013-03-15 21:07:00,52.0,27.8,30.12,South,180,3.6,3.6,39,0.00,,---,0.00,VWS V14.01,2013-03-16 01:07:00,
2013-03-15 21:09:00,52.0,27.8,30.12,SE,131,0.0,0.0,39,0.00,,---,0.00,VWS V14.01,2013-03-16 01:09:00,
2013-03-15 21:12:00,52.0,27.8,30.12,SW,222,0.0,5.8,39,0.00,,---,0.00,VWS V14.01,2013-03-16 01:12:00,
2013-03-15 21:14:00,52.0,27.8,30.12,South,171,3.6,3.6,39,0.00,,---,0.00,VWS V14.01,2013-03-16 01:14:00,
2013-03-15 21:17:00,52.0,27.8,30.12,SE,137,4.0,4.0,39,0.00,,---,0.00,VWS V14.01,2013-03-16 01:17:00,
2013-03-15 21:19:00,52.0,27.8,30.12,NW,309,4.9,4.9,39,0.00,,---,0.00,VWS V14.01,2013-03-16 01:19:00,
2013-03-15 21:22:00,52.0,27.8,30.12,South,169,6.3,6.3,39,0.00,,---,0.00,VWS V14.01,2013-03-16 01:22:00,
2013-03-15 21:23:00,52.0,27.8,30.12,South,169,6.3,6.3,39,0.00,,---,0.00,VWS V14.01,2013-03-16 01:23:00,
2013-03-15 21:24:00,52.0,27.8,30.12,West,268,5.4,5.4,39,0.00,,---,0.00,VWS V14.01,2013-03-16 01:24:00,
2013-03-15 21:27:00,52.2,28.0,30.12,SSE,167,2.7,2.7,39,0.00,,---,0.00,VWS V14.01,2013-03-16 01:27:00,
2013-03-15 21:28:00,52.2,28.0,30.12,SSE,167,2.7,2.7,39,0.00,,---,0.00,VWS V14.01,2013-03-16 01:28:00,
2013-03-15 21:29:00,52.2,28.0,30.12,West,278,3.1,5.4,39,0.00,,---,0.00,VWS V14.01,2013-03-16 01:29:00,
2013-03-15 21:32:00,52.3,28.1,30.12,WNW,282,2.7,2.7,39,0.00,,---,0.00,VWS V14.01,2013-03-16 01:32:00,
2013-03-15 21:33:00,52.3,28.1,30.12,WNW,282,2.7,2.7,39,0.00,,---,0.00,VWS V14.01,2013-03-16 01:33:00,
2013-03-15 21:34:00,52.2,28.0,30.12,SSW,204,2.7,3.6,39,0.00,,---,0.00,VWS V14.01,2013-03-16 01:34:00,
2013-03-15 21:37:00,52.2,28.0,30.12,SW,232,0.0,0.0,39,0.00,,---,0.00,VWS V14.01,2013-03-16 01:37:00,
2013-03-15 21:38:00,52.2,28.0,30.12,SW,232,0.0,0.0,39,0.00,,---,0.00,VWS V14.01,2013-03-16 01:38:00,
2013-03-15 21:40:00,52.0,27.8,30.12,WSW,244,3.6,4.5,39,0.00,,---,0.00,VWS V14.01,2013-03-16 01:40:00,
2013-03-15 21:42:00,52.2,28.0,30.12,WSW,239,3.1,3.6,39,0.00,,---,0.00,VWS V14.01,2013-03-16 01:42:00,
2013-03-15 21:43:00,52.2,28.0,30.12,WSW,238,0.0,3.1,39,0.00,,---,0.00,VWS V14.01,2013-03-16 01:43:00,
2013-03-15 21:45:00,52.0,27.8,30.12,South,176,3.6,3.6,39,0.00,,---,0.00,VWS V14.01,2013-03-16 01:45:00,
2013-03-15 21:47:00,52.0,28.4,30.12,SW,236,4.0,4.0,40,0.00,,---,0.00,VWS V14.01,2013-03-16 01:47:00,
2013-03-15 21:48:00,52.0,28.4,30.12,SW,215,5.8,5.8,40,0.00,,---,0.00,VWS V14.01,2013-03-16 01:48:00,
2013-03-15 21:50:00,52.0,28.4,30.12,SSE,166,3.1,4.0,40,0.00,,---,0.00,VWS V14.01,2013-03-16 01:50:00,
2013-03-15 21:52:00,52.0,28.4,30.12,SSE,163,0.0,0.0,40,0.00,,---,0.00,VWS V14.01,2013-03-16 01:52:00,
2013-03-15 21:53:00,52.0,28.4,30.12,WSW,243,2.2,2.2,40,0.00,,---,0.00,VWS V14.01,2013-03-16 01:53:00,
2013-03-15 21:55:00,52.0,28.4,30.12,ESE,121,2.7,2.7,40,0.00,,---,0.00,VWS V14.01,2013-03-16 01:55:00,
2013-03-15 21:57:00,52.0,28.4,30.12,WNW,295,0.0,0.0,40,0.00,,---,0.00,VWS V14.01,2013-03-16 01:57:00,
2013-03-15 21:58:00,52.0,28.4,30.12,WNW,295,0.0,0.0,40,0.00,,---,0.00,VWS V14.01,2013-03-16 01:58:00,
2013-03-15 22:00:00,52.0,28.4,30.12,SSE,167,3.6,3.6,40,0.00,,---,0.00,VWS V14.01,2013-03-16 02:00:00,
2013-03-15 22:02:00,52.0,29.0,30.12,ENE,77,3.1,3.6,41,0.00,,---,0.00,VWS V14.01,2013-03-16 02:02:00,
2013-03-15 22:03:00,52.0,29.0,30.12,ENE,77,3.1,3.6,41,0.00,,---,0.00,VWS V14.01,2013-03-16 02:03:00,
2013-03-15 22:05:00,52.0,29.0,30.12,West,279,2.7,2.7,41,0.00,,---,0.00,VWS V14.01,2013-03-16 02:05:00,
2013-03-15 22:08:00,52.0,29.0,30.12,SW,226,4.0,4.9,41,0.00,,---,0.00,VWS V14.01,2013-03-16 02:08:00,
2013-03-15 22:10:00,52.0,29.0,30.12,East,97,2.7,2.7,41,0.00,,---,0.00,VWS V14.01,2013-03-16 02:10:00,
2013-03-15 22:13:00,52.0,29.0,30.12,SW,236,3.6,3.6,41,0.00,,---,0.00,VWS V14.01,2013-03-16 02:13:00,
2013-03-15 22:15:00,52.0,29.0,30.12,SE,129,3.6,3.6,41,0.00,,---,0.00,VWS V14.01,2013-03-16 02:15:00,
2013-03-15 22:18:00,52.2,29.2,30.12,SE,145,2.7,2.7,41,0.00,,---,0.00,VWS V14.01,2013-03-16 02:18:00,
2013-03-15 22:20:00,52.2,29.2,30.12,SSW,210,3.6,3.6,41,0.00,,---,0.00,VWS V14.01,2013-03-16 02:20:00,
2013-03-15 22:23:00,52.0,29.6,30.12,NW,305,3.1,3.1,42,0.00,,---,0.00,VWS V14.01,2013-03-16 02:23:00,
2013-03-15 22:24:00,52.0,29.6,30.12,East,83,2.7,3.1,42,0.00,,---,0.00,VWS V14.01,2013-03-16 02:24:00,
2013-03-15 22:25:00,52.0,29.6,30.12,East,94,2.7,4.0,42,0.00,,---,0.00,VWS V14.01,2013-03-16 02:25:00,
2013-03-15 22:28:00,52.2,29.8,30.12,SSW,208,5.8,5.8,42,0.00,,---,0.00,VWS V14.01,2013-03-16 02:28:00,
2013-03-15 22:29:00,52.2,29.8,30.12,West,268,2.2,5.8,42,0.00,,---,0.00,VWS V14.01,2013-03-16 02:29:00,
2013-03-15 22:30:00,52.2,29.8,30.12,WSW,254,2.2,2.2,42,0.00,,---,0.00,VWS V14.01,2013-03-16 02:30:00,
2013-03-15 22:33:00,52.2,29.8,30.12,SW,223,3.1,4.0,42,0.00,,---,0.00,VWS V14.01,2013-03-16 02:33:00,
2013-03-15 22:34:00,52.2,29.8,30.12,South,180,3.1,3.1,42,0.00,,---,0.00,VWS V14.01,2013-03-16 02:34:00,
2013-03-15 22:35:00,52.2,29.8,30.12,South,180,3.1,3.1,42,0.00,,---,0.00,VWS V14.01,2013-03-16 02:35:00,
2013-03-15 22:38:00,52.2,29.8,30.12,SSW,194,0.0,3.1,42,0.00,,---,0.00,VWS V14.01,2013-03-16 02:38:00,
2013-03-15 22:39:00,52.3,30.0,30.12,SSW,194,0.0,3.1,42,0.00,,---,0.00,VWS V14.01,2013-03-16 02:39:00,
2013-03-15 22:40:00,52.3,30.0,30.12,WNW,289,3.6,3.6,42,0.00,,---,0.00,VWS V14.01,2013-03-16 02:40:00,
2013-03-15 22:43:00,52.3,30.5,30.12,SW,234,11.0,11.0,43,0.00,,---,0.00,VWS V14.01,2013-03-16 02:43:00,
2013-03-15 22:44:00,52.3,30.5,30.12,SW,234,11.0,11.0,43,0.00,,---,0.00,VWS V14.01,2013-03-16 02:44:00,
2013-03-15 22:45:00,52.3,30.5,30.12,SSE,148,3.1,3.1,43,0.00,,---,0.00,VWS V14.01,2013-03-16 02:45:00,
2013-03-15 22:48:00,52.5,30.7,30.12,WSW,248,0.0,0.0,43,0.00,,---,0.00,VWS V14.01,2013-03-16 02:48:00,
2013-03-15 22:49:00,52.5,30.7,30.12,WSW,248,0.0,0.0,43,0.00,,---,0.00,VWS V14.01,2013-03-16 02:49:00,
2013-03-15 22:50:00,52.5,30.7,30.12,WNW,289,3.6,3.6,43,0.00,,---,0.00,VWS V14.01,2013-03-16 02:50:00,
2013-03-15 22:53:00,52.5,30.7,30.12,WNW,284,3.6,3.6,43,0.00,,---,0.00,VWS V14.01,2013-03-16 02:53:00,
2013-03-15 22:54:00,52.5,30.7,30.12,WNW,284,3.6,3.6,43,0.00,,---,0.00,VWS V14.01,2013-03-16 02:54:00,
2013-03-15 22:55:00,52.5,30.1,30.12,SW,225,3.6,3.6,42,0.00,,---,0.00,VWS V14.01,2013-03-16 02:55:00,
2013-03-15 22:58:00,52.5,30.1,30.12,SW,225,3.6,3.6,42,0.00,,---,0.00,VWS V14.01,2013-03-16 02:58:00,
2013-03-15 22:59:00,52.5,30.1,30.12,SW,225,3.6,3.6,42,0.00,,---,0.00,VWS V14.01,2013-03-16 02:59:00,
2013-03-15 23:00:00,52.5,30.1,30.12,South,187,4.0,6.3,42,0.00,,---,0.00,VWS V14.01,2013-03-16 03:00:00,
2013-03-15 23:03:00,52.7,30.3,30.12,South,187,4.0,4.0,42,0.00,,---,0.00,VWS V14.01,2013-03-16 03:03:00,
2013-03-15 23:04:00,52.9,30.4,30.12,South,187,4.0,4.0,42,0.00,,---,0.00,VWS V14.01,2013-03-16 03:04:00,
2013-03-15 23:05:00,52.9,30.4,30.12,WNW,295,2.2,2.2,42,0.00,,---,0.00,VWS V14.01,2013-03-16 03:05:00,
2013-03-15 23:08:00,52.9,30.4,30.12,SW,234,3.6,3.6,42,0.00,,---,0.00,VWS V14.01,2013-03-16 03:08:00,
2013-03-15 23:09:00,52.9,30.4,30.12,SW,234,3.6,3.6,42,0.00,,---,0.00,VWS V14.01,2013-03-16 03:09:00,
2013-03-15 23:10:00,52.9,30.4,30.12,SW,234,3.6,3.6,42,0.00,,---,0.00,VWS V14.01,2013-03-16 03:10:00,
2013-03-15 23:13:00,52.9,30.4,30.12,North,357,0.0,0.0,42,0.00,,---,0.00,VWS V14.01,2013-03-16 03:13:00,
2013-03-15 23:14:00,52.9,30.4,30.12,North,357,0.0,0.0,42,0.00,,---,0.00,VWS V14.01,2013-03-16 03:14:00,
2013-03-15 23:15:00,53.1,30.6,30.12,SSW,212,3.1,3.1,42,0.00,,---,0.00,VWS V14.01,2013-03-16 03:15:00,
2013-03-15 23:18:00,53.1,30.6,30.12,SSW,201,2.2,2.2,42,0.00,,---,0.00,VWS V14.01,2013-03-16 03:18:00,
2013-03-15 23:19:00,53.1,30.6,30.12,SSW,209,2.7,2.7,42,0.00,,---,0.00,VWS V14.01,2013-03-16 03:19:00,
2013-03-15 23:20:00,53.1,30.6,30.12,SW,218,3.6,3.6,42,0.00,,---,0.00,VWS V14.01,2013-03-16 03:20:00,
2013-03-15 23:23:00,53.1,30.6,30.12,WSW,245,0.0,0.0,42,0.00,,---,0.00,VWS V14.01,2013-03-16 03:23:00,
2013-03-15 23:24:00,53.1,30.6,30.12,WSW,245,0.0,0.0,42,0.00,,---,0.00,VWS V14.01,2013-03-16 03:24:00,
2013-03-15 23:25:00,53.1,30.6,30.09,SSW,205,2.7,5.8,42,0.00,,---,0.00,VWS V14.01,2013-03-16 03:25:00,
2013-03-15 23:28:00,53.1,31.7,30.09,SW,221,4.0,4.0,44,0.00,,---,0.00,VWS V14.01,2013-03-16 03:28:00,
2013-03-15 23:29:00,53.1,31.7,30.09,East,94,3.6,3.6,44,0.00,,---,0.00,VWS V14.01,2013-03-16 03:29:00,
2013-03-15 23:30:00,53.1,31.7,30.09,East,97,2.7,3.1,44,0.00,,---,0.00,VWS V14.01,2013-03-16 03:30:00,
2013-03-15 23:33:00,53.1,32.3,30.09,NNE,26,2.2,2.2,45,0.00,,---,0.00,VWS V14.01,2013-03-16 03:33:00,
2013-03-15 23:34:00,53.1,32.3,30.09,East,79,2.7,2.7,45,0.00,,---,0.00,VWS V14.01,2013-03-16 03:34:00,
2013-03-15 23:35:00,53.1,32.3,30.09,South,187,2.2,3.6,45,0.00,,---,0.00,VWS V14.01,2013-03-16 03:35:00,
2013-03-15 23:38:00,53.1,32.8,30.09,ESE,105,2.7,3.6,46,0.00,,---,0.00,VWS V14.01,2013-03-16 03:38:00,
2013-03-15 23:39:00,53.1,32.8,30.09,ESE,105,2.7,2.7,46,0.00,,---,0.00,VWS V14.01,2013-03-16 03:39:00,
2013-03-15 23:40:00,53.1,32.8,30.09,ESE,105,2.7,2.7,46,0.00,,---,0.00,VWS V14.01,2013-03-16 03:40:00,
2013-03-15 23:43:00,53.1,32.8,30.09,SSE,162,3.1,3.1,46,0.00,,---,0.00,VWS V14.01,2013-03-16 03:43:00,
2013-03-15 23:44:00,53.1,32.8,30.09,SSE,159,3.1,3.1,46,0.00,,---,0.00,VWS V14.01,2013-03-16 03:44:00,
2013-03-15 23:45:00,53.1,32.8,30.09,ESE,109,2.2,2.2,46,0.00,,---,0.00,VWS V14.01,2013-03-16 03:45:00,
2013-03-15 23:49:00,53.1,33.4,30.09,WSW,237,2.2,2.2,47,0.00,,---,0.00,VWS V14.01,2013-03-16 03:49:00,
2013-03-15 23:50:00,53.1,33.4,30.09,SSW,198,3.1,3.1,47,0.00,,---,0.00,VWS V14.01,2013-03-16 03:50:00,
2013-03-15 23:54:00,53.1,33.4,30.09,South,183,7.2,7.2,47,0.00,,---,0.00,VWS V14.01,2013-03-16 03:54:00,
2013-03-15 23:55:00,53.1,33.4,30.09,South,183,7.2,7.2,47,0.00,,---,0.00,VWS V14.01,2013-03-16 03:55:00,
2013-03-15 23:59:00,53.1,33.4,30.09,SSW,202,2.7,2.7,47,0.00,,---,0.00,VWS V14.01,2013-03-16 03:59:00,